                ,  0.671,  0.819,  0.966,  1.114,  1.262,  1.410,  1.558,  1.705,  1.853,  2.001,  2.149,  2.297,  2.445,  2.592,  2.740,  2.888,  3.036,  3.184,  3.331,  3.479,  3.627,  3.775,  3.923,  4.070,  4.218,  4.366,  4.514,  4.662,  4.809,  4.957,  5.105,  5.253,  5.401,  5.549,  5.696,  5.844,  5.992,  6.140,  6.288,  6.435,  6.583,  6.731,  6.879,  7.027,  7.174,  7.322,  7.470,  7.618,  7.766,  7.914,  8.061,  8.209,  8.357,  8.505,  8.653,  8.800,  8.948,  9.096,  9.244,  9.392,  9.539,  9.687,  9.835
2005/10/31 00:00,  999.0,  999.0,  999.0,  999.0,  999.0,  999.0,  999.0,  999.0,  999.0,  999.0,  999.0,  999.0,  999.0,  999.0,  999.0,  999.0,  999.0,  999.0,  999.0,  999.0,  999.0,  999.0,  999.0,  999.0,  999.0,  999.0,  999.0,  999.0,  999.0,  999.0,  999.0,  999.0,  999.0,  999.0,  999.0,  999.0,  999.0,  999.0,  999.0,  999.0,  999.0,  999.0,  999.0,  999.0,  999.0,  999.0,  999.0,  999.0,  999.0,  999.0,  999.0,  999.0,  999.0,  999.0,  999.0,  999.0,  999.0,  999.0,  999.0,  999.0,  999.0,  999.0,  999.0
2005/10/31 00:10,  999.0,  999.0,  999.0,  999.0,  999.0,  999.0,  999.0,  999.0,  999.0,  999.0,  999.0,  999.0,  999.0,  999.0,  999.0,  999.0,  999.0,  999.0,  999.0,  999.0,  999.0,  999.0,  999.0,  999.0,  999.0,  999.0,  999.0,  999.0,  999.0,  999.0,  999.0,  999.0,  999.0,  999.0,  999.0,  999.0,  999.0,  999.0,  999.0,  999.0,  999.0,  999.0,  999.0,  999.0,  999.0,  999.0,  999.0,  999.0,  999.0,  999.0,  999.0,  999.0,  999.0,  999.0,  999.0,  999.0,  999.0,  999.0,  999.0,  999.0,  999.0,  999.0,  999.0
2005/10/31 00:20,  999.0,  999.0,  999.0,  999.0,  999.0,  999.0,  999.0,  999.0,  999.0,  999.0,  999.0,  999.0,  999.0,  999.0,  999.0,  999.0,  999.0,  999.0,  999.0,  999.0,  999.0,  999.0,  999.0,  999.0,  999.0,  999.0,  999.0,  999.0,  999.0,  999.0,  999.0,  999.0,  999.0,  999.0,  999.0,  999.0,  999.0,  999.0,  999.0,  999.0,  999.0,  999.0,  999.0,  999.0,  999.0,  999.0,  999.0,  999.0,  999.0,  999.0,  999.0,  999.0,  999.0,  999.0,  999.0,  999.0,  999.0,  999.0,  999.0,  999.0,  999.0,  999.0,  999.0
2005/10/31 00:30,  999.0,  999.0,  999.0,  999.0,  999.0,  999.0,  999.0,  999.0,  999.0,  999.0,  999.0,  999.0,  999.0,  999.0,  999.0,  999.0,  999.0,  999.0,  999.0,  999.0,  999.0,  999.0,  999.0,  999.0,  999.0,  999.0,  999.0,  999.0,  999.0,  999.0,  999.0,  999.0,  999.0,  999.0,  999.0,  999.0,  999.0,  999.0,  999.0,  999.0,  999.0,  999.0,  999.0,  999.0,  999.0,  999.0,  999.0,  999.0,  999.0,  999.0,  999.0,  999.0,  999.0,  999.0,  999.0,  999.0,  999.0,  999.0,  999.0,  999.0,  999.0,  999.0,  999.0
2005/10/31 00:40,  999.0,  999.0,  999.0,  999.0,  999.0,  999.0,  999.0,  999.0,  999.0,  999.0,  999.0,  999.0,  999.0,  999.0,  999.0,  999.0,  999.0,  999.0,  999.0,  999.0,  999.0,  999.0,  999.0,  999.0,  999.0,  999.0,  999.0,  999.0,  999.0,  999.0,  999.0,  999.0,  999.0,  999.0,  999.0,  999.0,  999.0,  999.0,  999.0,  999.0,  999.0,  999.0,  999.0,  999.0,  999.0,  999.0,  999.0,  999.0,  999.0,  999.0,  999.0,  999.0,  999.0,  999.0,  999.0,  999.0,  999.0,  999.0,  999.0,  999.0,  999.0,  999.0,  999.0
2005/10/31 00:50,  999.0,  999.0,  999.0,  999.0,  999.0,  999.0,  999.0,  999.0,  999.0,  999.0,  999.0,  999.0,  999.0,  999.0,  999.0,  999.0,  999.0,  999.0,  999.0,  999.0,  999.0,  999.0,  999.0,  999.0,  999.0,  999.0,  999.0,  999.0,  999.0,  999.0,  999.0,  999.0,  999.0,  999.0,  999.0,  999.0,  999.0,  999.0,  999.0,  999.0,  999.0,  999.0,  999.0,  999.0,  999.0,  999.0,  999.0,  999.0,  999.0,  999.0,  999.0,  999.0,  999.0,  999.0,  999.0,  999.0,  999.0,  999.0,  999.0,  999.0,  999.0,  999.0,  999.0
2005/10/31 01:00,  999.0,    5.2,    4.5,    5.6,    6.4,    7.4,    8.7,   10.7,  999.0,   11.3,   11.5,   12.5,   12.0,   12.5,   12.7,   13.6,   14.3,   14.8,  999.0,  999.0,  999.0,  999.0,  999.0,  999.0,   55.2,   55.0,   55.2,   55.2,   55.2,   55.2,   55.2,   55.2,   55.3,   55.2,   55.2,   55.2,   55.2,   55.3,   55.4,   55.4,   55.5,  999.0,   55.4,   55.5,  999.0,   54.9,   55.5,  999.0,   53.7,  999.0,  999.0,  999.0,  999.0,  999.0,  999.0,  999.0,  999.0,  999.0,  999.0,  999.0,  999.0,  999.0,   52.3
2005/10/31 01:10,  999.0,    6.1,    5.8,    5.9,    6.7,    7.8,    9.2,   10.5,  999.0,   11.6,   11.6,   13.0,   11.7,   11.7,   12.4,   12.9,   14.1,  999.0,  999.0,  999.0,  999.0,  999.0,  999.0,  999.0,  999.0,   55.1,   55.2,   55.1,   55.1,   55.2,   55.2,   55.2,   55.2,   55.2,   55.3,   55.3,   55.3,   55.2,   55.2,   55.4,  999.0,   55.3,   55.6,  999.0,   55.3,   55.6,  999.0,  999.0,  999.0,  999.0,  999.0,  999.0,  999.0,  999.0,  999.0,  999.0,  999.0,   54.6,  999.0,   54.7,  999.0,   54.8,  999.0
2005/10/31 01:20,  999.0,    6.6,    6.1,    5.9,    7.1,    7.6,  999.0,   11.0,   11.4,   11.7,   11.9,   13.0,   11.7,   12.3,   13.1,   13.5,   14.0,   14.4,   14.6,  999.0,  999.0,  999.0,  999.0,  999.0,  999.0,  999.0,   55.2,  999.0,   55.2,   55.2,   55.2,   55.2,   55.2,   55.2,   55.1,   55.2,   55.2,  999.0,   55.5,  999.0,  999.0,   55.7,  999.0,  999.0,  999.0,  999.0,  999.0,  999.0,  999.0,  999.0,  999.0,  999.0,  999.0,  999.0,  999.0,  999.0,  999.0,   55.0,  999.0,   54.4,  999.0,  999.0,  999.0
2005/10/31 01:30,  999.0,    7.0,    6.9,    7.1,    7.0,    7.8,    9.0,   10.4,   10.4,   11.2,   12.5,   13.0,   12.7,   12.9,   13.1,   12.9,   13.0,   13.0,  999.0,  999.0,  999.0,  999.0,  999.0,  999.0,  999.0,  999.0,  999.0,   55.2,   55.2,   55.1,   55.3,   55.2,   55.2,   55.2,   55.2,   55.3,   55.3,   55.3,   55.3,   55.3,   55.3,   55.4,   55.3,  999.0,   55.3,   54.9,  999.0,  999.0,  999.0,  999.0,  999.0,  999.0,  999.0,  999.0,  999.0,  999.0,  999.0,  999.0,  999.0,   54.4,   55.5,   54.9,   55.0
2005/10/31 01:40,  999.0,    5.5,    4.7,    4.2,  999.0,    7.1,    9.0,    8.5,   10.3,  999.0,   12.2,   12.8,   12.5,   12.7,   12.3,   11.9,   11.7,  999.0,  999.0,  999.0,  999.0,  999.0,  999.0,  999.0,  999.0,  999.0,  999.0,  999.0,   55.1,   55.3,   55.2,   55.3,   55.2,   55.3,   55.3,   55.1,   55.3,   55.3,   55.3,  999.0,  999.0,  999.0,   55.6,  999.0,  999.0,  999.0,  999.0,  999.0,  999.0,  999.0,  999.0,  999.0,  999.0,  999.0,  999.0,  999.0,  999.0,  999.0,  999.0,  999.0,  999.0,  999.0,  999.0
2005/10/31 01:50,  999.0,    5.5,    5.0,    4.6,    6.2,    6.8,    8.3,    9.7,    9.9,   11.4,   12.2,   11.9,   12.7,   12.6,   12.0,   12.1,   12.0,   13.2,  999.0,  999.0,  999.0,  999.0,  999.0,  999.0,  999.0,  999.0,   55.1,   55.2,   55.1,   55.2,   55.2,   55.2,   55.2,   55.2,   55.3,   55.4,   55.3,   55.3,   55.3,   55.4,   55.4,   55.6,   55.4,   55.4,  999.0,  999.0,  999.0,  999.0,  999.0,  999.0,  999.0,  999.0,  999.0,  999.0,  999.0,  999.0,  999.0,  999.0,  999.0,  999.0,  999.0,  999.0,  999.0
2005/10/31 02:00,  999.0,    5.4,    4.0,    3.8,  999.0,    5.9,    8.3,    9.5,   10.6,  999.0,   12.2,  999.0,  999.0,   12.3,   12.3,   13.2,   13.0,  999.0,  999.0,  999.0,  999.0,  999.0,  999.0,  999.0,  999.0,   55.1,   55.1,   55.2,   55.2,   55.2,   55.1,   55.2,   55.2,   55.2,   55.2,   55.2,   55.1,   55.3,   55.2,   55.2,   55.3,   55.6,   55.3,   55.3,  999.0,  999.0,  999.0,  999.0,  999.0,  999.0,  999.0,  999.0,  999.0,  999.0,  999.0,  999.0,  999.0,  999.0,  999.0,  999.0,  999.0,  999.0,  999.0
2005/10/31 02:10,  999.0,    6.3,    5.0,    6.8,    6.5,    6.9,    7.8,    8.4,   10.1,   10.3,  999.0,  999.0,  999.0,  999.0,   12.2,  999.0,  999.0,  999.0,  999.0,  999.0,  999.0,  999.0,  999.0,  999.0,  999.0,   55.2,   55.2,   55.2,   55.2,   55.3,   55.2,   55.2,   55.2,   55.3,   55.2,   55.3,   55.3,   55.3,   55.2,   55.4,   55.2,   55.5,   55.6,  999.0,  999.0,  999.0,  999.0,  999.0,  999.0,  999.0,  999.0,  999.0,  999.0,  999.0,  999.0,  999.0,  999.0,  999.0,  999.0,  999.0,  999.0,  999.0,  999.0
2005/10/31 02:20,  999.0,    5.7,    7.0,    6.2,    5.8,    5.4,    7.3,    8.4,    8.9,    9.9,  999.0,  999.0,   12.1,   12.3,   12.5,   13.2,  999.0,  999.0,  999.0,  999.0,  999.0,  999.0,  999.0,  999.0,  999.0,  999.0,  999.0,   55.3,   55.2,   55.3,   55.2,   55.2,   55.2,   55.2,   55.3,   55.2,   55.2,   55.3,   55.2,   55.3,   55.5,   55.3,   55.3,   55.5,  999.0,  999.0,  999.0,  999.0,  999.0,  999.0,  999.0,  999.0,  999.0,  999.0,  999.0,  999.0,  999.0,  999.0,  999.0,  999.0,  999.0,  999.0,  999.0
2005/10/31 02:30,  999.0,    6.5,    7.0,    6.8,    6.6,    6.6,    7.7,    8.0,    9.2,    9.6,    9.8,  999.0,   11.9,   13.0,   13.8,   13.6,   15.4,   15.7,  999.0,  999.0,  999.0,  999.0,  999.0,  999.0,  999.0,  999.0,   55.2,   55.1,   55.1,   55.3,   55.2,   55.2,   55.2,   55.2,   55.2,   55.4,   55.3,   55.2,   55.3,   55.4,  999.0,   55.4,  999.0,  999.0,  999.0,  999.0,  999.0,  999.0,  999.0,  999.0,  999.0,  999.0,  999.0,  999.0,  999.0,  999.0,  999.0,  999.0,  999.0,  999.0,  999.0,  999.0,  999.0
2005/10/31 02:40,  999.0,    6.2,    6.8,    7.0,    6.7,    6.6,    7.1,    7.3,    8.2,    9.1,    9.7,    9.5,    9.5,   11.8,   13.7,   14.5,   15.4,   15.9,   15.7,  999.0,  999.0,  999.0,  999.0,  999.0,  999.0,  999.0,  999.0,  999.0,  999.0,   55.1,   55.2,   55.2,   55.2,   55.2,   55.3,   55.3,   55.2,   55.2,   55.3,   55.3,   55.4,   55.5,  999.0,   55.1,  999.0,  999.0,  999.0,  999.0,  999.0,  999.0,  999.0,  999.0,  999.0,  999.0,  999.0,  999.0,  999.0,  999.0,  999.0,  999.0,  999.0,  999.0,  999.0
2005/10/31 02:50,  999.0,    5.8,    6.9,    7.7,    5.6,    6.7,    6.8,    7.0,    6.8,    7.6,    9.3,   10.6,   10.2,   11.7,   12.5,  999.0,   15.6,   15.5,   15.4,  999.0,  999.0,  999.0,  999.0,  999.0,   55.2,  999.0,  999.0,  999.0,  999.0,  999.0,  999.0,   55.2,   55.2,   55.2,   55.3,   55.3,   55.3,   55.3,   55.3,   55.2,   55.2,   55.2,   55.4,   55.5,  999.0,   55.5,  999.0,  999.0,  999.0,  999.0,  999.0,  999.0,  999.0,  999.0,  999.0,  999.0,  999.0,  999.0,  999.0,  999.0,  999.0,  999.0,  999.0
2005/10/31 03:00,  999.0,    6.0,    6.4,    7.6,    7.0,    6.3,    7.2,    6.8,    6.6,    7.4,    8.7,   10.1,   10.2,   10.9,   12.6,   13.5,  999.0,  999.0,  999.0,  999.0,  999.0,  999.0,  999.0,  999.0,  999.0,  999.0,  999.0,  999.0,  999.0,   55.2,   55.2,   55.2,   55.2,   55.3,   55.2,   55.3,   55.3,   55.2,   55.4,   55.0,  999.0,  999.0,  999.0,  999.0,  999.0,  999.0,  999.0,  999.0,  999.0,  999.0,  999.0,  999.0,  999.0,  999.0,  999.0,  999.0,  999.0,  999.0,  999.0,  999.0,  999.0,  999.0,  999.0
2005/10/31 03:10,  999.0,    6.3,    6.4,    6.4,    5.8,  999.0,    5.8,    6.3,    6.0,    7.3,    9.6,   10.0,  999.0,  999.0,  999.0,   12.4,   12.3,  999.0,  999.0,  999.0,  999.0,  999.0,  999.0,  999.0,  999.0,  999.0,   55.2,   55.2,  999.0,  999.0,   55.2,   55.2,   55.2,   55.2,   55.3,   55.2,   55.3,   55.2,   55.4,   55.3,   55.3,  999.0,   55.4,   55.3,   55.4,  999.0,  999.0,  999.0,  999.0,  999.0,  999.0,  999.0,  999.0,  999.0,  999.0,  999.0,  999.0,  999.0,  999.0,  999.0,  999.0,  999.0,  999.0
2005/10/31 03:20,  999.0,    6.7,    6.8,    6.5,    6.3,    5.6,    5.7,    7.4,    7.1,    7.3,    8.7,    9.8,  999.0,   10.4,  999.0,  999.0,  999.0,  999.0,  999.0,  999.0,  999.0,  999.0,  999.0,   55.1,   55.1,   55.1,   55.2,   55.1,   55.2,   55.2,   55.2,   55.2,   55.2,   55.2,   55.2,   55.2,   55.2,   55.3,   55.3,   55.4,   55.3,   55.6,   55.4,   55.5,  999.0,  999.0,  999.0,  999.0,  999.0,  999.0,  999.0,  999.0,  999.0,  999.0,  999.0,  999.0,  999.0,  999.0,  999.0,  999.0,  999.0,  999.0,  999.0
2005/10/31 03:30,  999.0,    6.9,    6.9,    4.8,    4.7,  999.0,    6.4,    6.4,  999.0,    7.1,    9.6,  999.0,  999.0,  999.0,   10.5,  999.0,  999.0,   14.3,   15.7,  999.0,  999.0,  999.0,  999.0,  999.0,  999.0,  999.0,   55.1,   55.1,   55.2,   55.2,   55.2,   55.2,   55.2,   55.2,   55.3,   55.3,   55.3,   55.2,   55.2,   55.3,   55.3,   55.3,   55.1,   55.4,   55.4,   55.5,  999.0,   55.5,  999.0,  999.0,  999.0,  999.0,  999.0,  999.0,  999.0,  999.0,  999.0,  999.0,  999.0,  999.0,  999.0,  999.0,  999.0
2005/10/31 03:40,  999.0,    6.6,    6.2,    2.7,    4.6,    5.8,    6.0,    6.3,    6.5,    8.2,   10.3,  999.0,   11.7,   11.6,   12.0,   12.7,   14.7,   15.3,   17.1,   18.4,  999.0,  999.0,  999.0,  999.0,  999.0,   55.1,  999.0,   55.1,   55.2,   55.1,   55.1,   55.2,   55.2,   55.2,   55.2,   55.2,   55.2,   55.3,   55.3,   55.3,   55.2,   55.4,   55.4,  999.0,   55.5,  999.0,  999.0,  999.0,  999.0,  999.0,   54.4,  999.0,  999.0,  999.0,  999.0,  999.0,  999.0,  999.0,  999.0,  999.0,  999.0,  999.0,  999.0
2005/10/31 03:50,  999.0,    5.6,    2.1,    0.4,    2.6,    5.9,    5.8,    5.3,    6.2,    7.7,    8.7,   11.5,   12.1,   11.4,   12.6,   13.1,   14.6,   15.7,   17.7,   18.7,  999.0,  999.0,  999.0,  999.0,  999.0,  999.0,  999.0,  999.0,  999.0,   55.3,   55.2,   55.2,   55.2,   55.2,   55.2,   55.3,   55.2,   55.2,   55.3,   55.4,   55.4,   55.5,  999.0,  999.0,  999.0,  999.0,  999.0,  999.0,  999.0,  999.0,  999.0,  999.0,  999.0,  999.0,  999.0,  999.0,  999.0,  999.0,  999.0,  999.0,  999.0,  999.0,  999.0
2005/10/31 04:00,  999.0,    5.7,    2.2,    0.7,    3.3,    6.1,    6.6,    7.0,    7.8,    8.8,   10.4,   12.1,   13.1,   13.9,   14.4,   15.0,   15.7,   15.8,   15.7,   15.6,  999.0,  999.0,  999.0,  999.0,  999.0,  999.0,  999.0,  999.0,  999.0,  999.0,  999.0,   55.2,   55.2,   55.2,   55.2,   55.2,   55.2,   55.2,   55.3,   55.2,   55.1,   55.2,   55.2,   55.4,   55.3,   55.3,   55.3,  999.0,  999.0,  999.0,  999.0,  999.0,  999.0,  999.0,  999.0,  999.0,  999.0,  999.0,  999.0,   54.9,  999.0,  999.0,  999.0
2005/10/31 04:10,  999.0,    2.1,    0.6,    1.0,    2.8,    4.9,    6.4,    7.2,    8.8,    9.3,   10.5,  999.0,  999.0,   13.9,   14.2,   14.1,   14.5,   14.4,   15.1,   15.1,  999.0,  999.0,  999.0,  999.0,  999.0,  999.0,  999.0,  999.0,  999.0,   55.2,   55.2,   55.2,   55.2,   55.2,   55.2,   55.3,   55.3,   55.3,   55.3,   55.3,   55.3,  999.0,   55.1,   55.1,  999.0,   55.0,  999.0,  999.0,  999.0,  999.0,  999.0,  999.0,  999.0,  999.0,  999.0,  999.0,  999.0,   54.8,  999.0,  999.0,  999.0,  999.0,  999.0
2005/10/31 04:20,  999.0,    2.0,    1.1,    0.4,    3.0,    6.2,    6.0,    7.7,    8.2,    8.9,    9.9,   11.0,   12.7,   13.5,  999.0,   14.1,   14.1,   14.9,   15.2,   16.6,   15.3,  999.0,  999.0,  999.0,  999.0,   55.2,  999.0,   55.2,   55.1,   55.1,   55.2,   55.2,   55.1,   55.1,   55.2,   55.2,   55.2,   55.2,   55.3,   55.2,   55.2,   55.3,   55.3,   55.3,   55.4,   55.6,   55.5,  999.0,  999.0,  999.0,  999.0,  999.0,  999.0,  999.0,  999.0,  999.0,  999.0,  999.0,  999.0,  999.0,  999.0,  999.0,  999.0
2005/10/31 04:30,  999.0,    1.0,    0.9,    0.6,    3.2,    6.3,    6.8,    7.2,    7.6,    8.0,    8.8,   10.9,   12.8,   14.2,   14.2,   13.7,  999.0,   14.6,  999.0,  999.0,  999.0,  999.0,  999.0,  999.0,  999.0,  999.0,  999.0,  999.0,   55.1,   55.1,   55.2,   55.2,   55.2,   55.2,   55.2,   55.4,   55.2,   55.2,   55.1,   55.3,   55.3,   55.4,   55.5,   55.2,  999.0,  999.0,  999.0,  999.0,  999.0,  999.0,  999.0,  999.0,  999.0,  999.0,  999.0,  999.0,  999.0,   54.7,  999.0,  999.0,  999.0,  999.0,  999.0
2005/10/31 04:40,  999.0,    1.3,    2.0,    1.4,    4.4,    5.9,    6.6,    7.2,    7.1,    7.6,    8.3,   10.4,   12.1,   13.7,   13.3,   13.0,   12.6,   14.3,   15.0,   14.5,  999.0,  999.0,  999.0,  999.0,  999.0,  999.0,  999.0,   55.1,   55.2,   55.1,   55.3,   55.2,   55.1,   55.3,   55.2,   55.1,   55.3,   55.3,   55.3,   55.2,   55.3,   55.3,   55.4,   55.3,   55.3,   55.2,   55.5,   55.2,  999.0,   55.5,  999.0,   55.4,  999.0,   55.7,  999.0,  999.0,  999.0,  999.0,  999.0,  999.0,  999.0,  999.0,  999.0
2005/10/31 04:50,  999.0,    3.0,    2.2,    1.7,    5.2,    5.9,  999.0,    7.3,    7.0,    7.3,    8.5,    9.9,   11.2,   13.5,   13.8,   12.8,   13.2,   16.1,   15.7,   15.1,  999.0,  999.0,  999.0,  999.0,  999.0,  999.0,  999.0,  999.0,  999.0,  999.0,   55.2,   55.1,   55.2,   55.1,   55.2,   55.2,   55.3,   55.2,   55.2,   55.4,   55.3,   55.4,   55.4,  999.0,  999.0,  999.0,  999.0,  999.0,  999.0,  999.0,  999.0,  999.0,  999.0,  999.0,  999.0,  999.0,  999.0,  999.0,  999.0,  999.0,  999.0,  999.0,  999.0
2005/10/31 05:00,  999.0,    1.8,    2.0,  999.0,  999.0,    8.0,    7.1,    6.7,    6.3,  999.0,    7.9,    8.6,    9.7,   12.3,   12.9,   12.4,   12.1,   14.2,   15.5,  999.0,  999.0,  999.0,  999.0,  999.0,  999.0,  999.0,  999.0,   55.2,   55.2,   55.3,  999.0,   55.3,   55.2,   55.2,   55.2,   55.2,   55.2,   55.2,   55.3,   55.2,   55.3,   55.3,   55.3,   55.3,   55.4,   55.5,   55.3,   55.4,   55.4,   55.3,  999.0,   55.6,   55.4,  999.0,  999.0,  999.0,  999.0,  999.0,  999.0,  999.0,  999.0,  999.0,  999.0
2005/10/31 05:10,  999.0,    1.7,    2.0,    2.8,    5.4,  999.0,    5.1,    6.1,    6.7,    6.2,    7.3,    8.9,   10.7,   12.5,   13.4,  999.0,  999.0,  999.0,  999.0,  999.0,  999.0,  999.0,  999.0,  999.0,   55.0,   55.1,   55.1,   55.1,   55.1,   55.1,   55.1,   55.1,   55.2,   55.2,   55.1,   55.2,   55.2,   55.2,   55.0,   55.2,   55.2,   55.2,   55.4,   55.3,  999.0,  999.0,   54.9,  999.0,  999.0,  999.0,  999.0,   55.1,  999.0,  999.0,  999.0,  999.0,  999.0,  999.0,  999.0,  999.0,  999.0,  999.0,  999.0
2005/10/31 05:20,  999.0,    0.9,    3.0,    1.8,    2.8,  999.0,    7.5,    6.1,    6.9,    7.3,    7.9,    9.9,   11.2,   12.4,   11.9,   11.2,  999.0,  999.0,  999.0,  999.0,  999.0,  999.0,  999.0,  999.0,  999.0,  999.0,  999.0,  999.0,  999.0,   55.1,   55.2,   55.1,   55.2,   55.2,   55.1,   55.2,   55.2,   55.2,   55.1,  999.0,   55.3,  999.0,   55.5,  999.0,  999.0,  999.0,  999.0,  999.0,  999.0,  999.0,  999.0,  999.0,  999.0,  999.0,  999.0,  999.0,  999.0,  999.0,  999.0,  999.0,  999.0,  999.0,  999.0
2005/10/31 05:30,  999.0,    2.0,    1.7,    0.5,    1.9,  999.0,    4.7,    5.5,    6.8,    7.5,    8.0,    9.9,   10.0,   11.0,   10.2,    8.9,    9.6,  999.0,  999.0,  999.0,  999.0,  999.0,  999.0,   55.0,   55.1,   55.1,   55.2,   55.2,   55.1,   55.1,   55.1,   55.2,   55.1,   55.2,   55.2,   55.2,   55.2,   55.2,   55.3,   55.4,   55.2,   55.4,   55.2,   55.1,   55.3,   55.2,   55.3,   55.7,   55.3,  999.0,  999.0,   55.3,   55.2,  999.0,  999.0,  999.0,   55.3,  999.0,  999.0,  999.0,  999.0,  999.0,  999.0
2005/10/31 05:40,  999.0,  999.0,  999.0,  999.0,  999.0,  999.0,   -1.7,  999.0,    5.6,  999.0,  999.0,  999.0,   10.9,   11.2,  999.0,    8.9,   11.2,   11.1,  999.0,  999.0,  999.0,  999.0,  999.0,   55.1,   55.1,   55.1,   55.2,   55.1,   55.1,   55.2,   55.2,   55.1,   55.1,   55.2,   55.2,   55.2,   55.2,   55.3,   55.2,   55.3,   55.3,   55.3,   55.3,   55.3,   55.0,   55.4,   55.2,   55.3,   55.4,  999.0,   55.4,   55.6,   55.3,   55.5,   55.4,   55.4,  999.0,  999.0,   55.4,  999.0,  999.0,  999.0,  999.0
2005/10/31 05:50,  999.0,    0.5,    0.8,    0.2,    3.0,    3.5,   -0.7,    2.6,    5.5,    7.9,    9.4,    9.9,   10.2,   10.9,    8.9,    8.3,  999.0,   10.2,  999.0,  999.0,  999.0,  999.0,  999.0,  999.0,  999.0,  999.0,   55.1,   55.1,   55.1,   55.1,   55.1,   55.1,   55.2,   55.2,   55.2,   55.2,   55.2,   55.2,   55.3,   55.3,   55.4,   55.4,   55.2,   55.2,   55.4,   55.2,   55.3,   55.3,   55.3,  999.0,  999.0,   55.2,   55.0,  999.0,  999.0,  999.0,  999.0,  999.0,  999.0,  999.0,  999.0,  999.0,  999.0
2005/10/31 06:00,  999.0,    0.6,    0.7,    0.3,    2.7,    4.4,    3.9,    4.9,    6.5,    8.1,    8.6,    9.2,   10.6,    9.8,    8.4,    7.8,    7.9,  999.0,  999.0,  999.0,  999.0,  999.0,  999.0,  999.0,  999.0,   55.1,   55.1,   55.1,   55.1,   55.1,   55.1,   55.2,   55.1,   55.1,   55.2,   55.1,   55.2,   55.2,   55.2,   55.2,   55.2,   55.3,   55.3,   55.2,   55.3,   55.0,   55.4,   55.2,   55.1,   55.3,   55.2,   55.3,   55.3,   55.5,   55.4,   55.6,  999.0,   55.6,   55.7,  999.0,  999.0,  999.0,  999.0
2005/10/31 06:10,  999.0,    1.2,    0.9,  999.0,    0.5,    4.4,    3.8,    4.5,    5.9,    7.0,    7.6,    8.3,    9.8,    9.2,    8.3,    7.1,    6.8,    7.5,    8.9,  999.0,  999.0,  999.0,  999.0,  999.0,  999.0,  999.0,  999.0,   55.1,   55.1,   55.2,   55.2,   55.2,   55.1,   55.1,   55.2,   55.3,   55.3,   55.2,   55.2,   55.3,   55.3,   55.2,   55.3,   55.4,   55.3,   55.2,   55.4,   55.0,  999.0,   55.2,  999.0,   55.6,  999.0,  999.0,  999.0,  999.0,  999.0,  999.0,  999.0,  999.0,  999.0,  999.0,  999.0
2005/10/31 06:20,  999.0,    0.9,    1.0,    1.2,    2.9,    4.3,    3.7,    4.0,    4.9,    5.9,    6.4,    7.5,    8.6,    8.0,    7.5,    6.6,    6.6,    7.0,    8.3,    8.9,  999.0,  999.0,  999.0,  999.0,  999.0,  999.0,   55.1,   55.1,   55.1,   55.1,   55.1,   55.0,   55.1,   55.1,   55.1,   55.2,   55.1,   55.1,   55.2,   55.1,   55.1,   55.3,   55.2,   55.2,   55.2,   55.1,   55.1,   55.3,   55.2,   55.2,   55.2,   55.2,   55.2,   55.1,   55.1,   55.3,  999.0,   55.4,   55.2,   55.3,  999.0,   55.1,   55.1
2005/10/31 06:30,  999.0,    0.7,    0.9,    0.5,    2.7,  999.0,    2.2,    2.6,    4.2,    5.7,    6.6,    7.0,    7.6,    8.0,    6.8,    5.8,    6.0,    7.3,  999.0,  999.0,  999.0,  999.0,  999.0,  999.0,  999.0,  999.0,  999.0,   55.1,   55.1,   55.1,   55.1,   55.2,   55.2,   55.2,   55.2,   55.1,   55.2,   55.2,   55.3,   55.3,   55.3,   55.3,   55.2,   55.3,  999.0,   55.3,   55.5,  999.0,   55.4,   55.2,  999.0,  999.0,  999.0,  999.0,  999.0,  999.0,  999.0,  999.0,  999.0,  999.0,  999.0,  999.0,  999.0
2005/10/31 06:40,  999.0,    2.6,    2.0,    0.8,    1.9,    3.1,    2.9,    3.0,    3.7,    5.4,    6.3,    6.3,    6.7,    6.7,    5.8,    5.5,    5.2,    5.8,    6.4,  999.0,  999.0,  999.0,  999.0,  999.0,  999.0,  999.0,  999.0,   55.1,   55.1,   55.2,   16.5,   16.5,   11.1,    0.1,   -0.0,   13.8,   11.1,   11.0,   13.8,   -0.0,    6.9,   16.5,   13.8,   -0.0,   13.8,   20.7,   16.6,   20.7,    9.1,   20.8,   20.8,   36.8,   16.6,    0.0,   18.4,    9.0,   27.7,   -0.1,   13.8,  999.0,   27.6,  999.0,   13.8
2005/10/31 06:50,  999.0,    2.2,    1.9,    0.9,    1.2,    1.4,    4.2,    3.5,    3.2,    5.1,    6.1,    6.3,    6.2,    6.5,    5.6,    5.0,    4.7,    6.4,    6.5,  999.0,  999.0,  999.0,  999.0,  999.0,  999.0,  999.0,   55.1,   55.1,   55.1,   55.1,   55.1,   55.1,   36.8,   36.8,   34.5,   34.5,   27.7,   34.4,   34.5,   45.9,   34.5,   55.2,   55.2,   55.3,   55.3,   55.2,   55.2,   34.4,  999.0,   27.6,   55.6,   55.2,   55.2,   27.3,   55.2,  999.0,   55.4,  999.0,   55.3,  999.0,  999.0,  999.0,  999.0
2005/10/31 07:00,  999.0,    1.0,    1.3,    0.3,    0.9,    1.5,    3.9,    3.5,    1.9,    3.2,    4.3,    5.3,    5.6,    5.8,    5.6,    4.2,    3.8,    5.2,    6.0,    6.2,    8.4,  999.0,  999.0,  999.0,  999.0,  999.0,  999.0,   55.0,  999.0,   55.1,   55.3,   55.1,   55.1,   55.0,   55.0,   55.1,   55.1,   55.1,   55.2,   55.2,   55.1,   55.2,   55.1,   55.1,   55.3,   55.1,   55.2,   55.1,   55.1,   55.1,   55.1,   55.1,   55.2,   55.2,   55.1,   55.2,   55.3,   55.1,   55.3,   55.4,   55.0,   55.2,   55.3
2005/10/31 07:10,  999.0,    0.7,    1.6,    0.3,    0.6,    3.8,    3.9,    3.3,    1.1,    2.0,    2.5,    3.6,    4.5,    5.1,    4.5,    3.7,    3.2,    4.9,    5.5,    6.1,    7.8,  999.0,  999.0,  999.0,  999.0,  999.0,  999.0,  999.0,  999.0,  999.0,   55.1,   55.1,   55.1,   55.2,   55.1,   55.1,   55.1,   55.1,   55.2,   55.1,   55.1,   55.3,   55.3,   55.2,   55.2,   55.3,   55.2,   55.3,   55.3,   55.3,   55.6,   55.4,  999.0,   55.0,   55.2,   55.4,  999.0,   55.3,  999.0,  999.0,  999.0,   55.3,  999.0
2005/10/31 07:20,  999.0,    1.4,    0.1,    0.2,    3.4,    3.9,    2.2,    0.7,    0.5,    1.6,    2.7,    4.2,    4.7,    5.0,    4.0,    2.9,    3.3,    5.1,    6.3,  999.0,  999.0,  999.0,  999.0,  999.0,  999.0,  999.0,  999.0,  999.0,  999.0,  999.0,   55.2,   55.1,   55.1,   55.0,   55.2,   55.2,   55.1,   55.1,   55.1,   55.2,   55.2,   55.2,   55.1,   55.1,   55.2,   55.1,   55.1,   55.1,   55.1,  999.0,   55.2,   55.3,   55.1,   55.3,   55.3,  999.0,   55.3,   55.1,   55.2,  999.0,   55.2,   55.5,   55.2
2005/10/31 07:30,  999.0,    1.2,    0.7,    0.3,    0.8,    4.1,    3.0,    0.5,    1.0,    2.9,    4.1,    4.8,    4.5,    3.8,    3.1,    2.1,    2.4,    4.5,    4.9,  999.0,  999.0,  999.0,  999.0,  999.0,  999.0,  999.0,  999.0,  999.0,  999.0,   27.6,   36.8,   55.1,   41.5,   55.2,   55.0,   55.2,   46.0,   55.2,   41.3,   55.1,   55.1,   55.2,   55.2,   55.1,   55.3,   55.1,   55.3,   55.2,   48.3,   45.9,   55.3,   55.2,   55.2,   55.4,   46.2,   55.2,   48.5,   48.5,   55.4,   55.3,  999.0,   28.0,   55.6
2005/10/31 07:40,  999.0,    1.1,    0.3,    0.5,    1.8,    3.9,    3.5,    0.7,    1.5,    3.5,    5.1,    4.9,    3.5,    2.1,  999.0,    1.2,    2.1,    3.3,    3.9,  999.0,    6.6,    7.6,  999.0,  999.0,  999.0,  999.0,  999.0,  999.0,  999.0,  999.0,  999.0,  999.0,  999.0,   54.9,   55.0,   54.9,   55.0,   55.0,   54.9,   55.1,   55.0,   55.0,   55.1,   55.0,   55.0,   55.0,   55.0,   54.9,   55.0,   55.0,   55.1,   55.1,   55.0,   55.1,   54.9,   54.9,   55.0,   55.0,   54.9,   54.6,  999.0,  999.0,  999.0
2005/10/31 07:50,  999.0,    0.8,   -0.2,    0.2,    1.6,    5.1,    4.8,    1.4,    1.1,    3.2,  999.0,    4.2,    2.7,  999.0,    1.0,    0.3,  999.0,    3.8,    4.0,  999.0,  999.0,  999.0,  999.0,  999.0,  999.0,  999.0,   -0.0,   27.6,  999.0,   22.0,    0.0,   22.1,   21.9,   22.1,   27.5,   18.5,   27.5,   18.4,   18.3,   27.7,   27.6,   55.1,   27.6,   27.5,    0.0,   18.4,   13.9,   18.3,   13.8,   13.8,   13.7,   22.1,   22.0,   18.3,   22.1,   36.9,   13.8,   21.9,   36.6,   36.8,  999.0,  999.0,   18.1
2005/10/31 08:00,  999.0,    0.8,    0.7,  999.0,    1.2,  999.0,  999.0,  999.0,  999.0,    2.0,    2.9,    3.9,    3.1,    2.2,  999.0,  999.0,    3.7,    3.3,  999.0,  999.0,  999.0,  999.0,  999.0,  999.0,  999.0,  999.0,  999.0,  999.0,  999.0,   54.9,   55.0,   54.9,   55.1,   54.9,   55.0,   54.9,   55.0,   55.0,   54.9,   54.9,   54.9,   55.1,   55.0,   54.9,   55.0,   54.9,   55.1,   55.0,   54.9,   55.2,   55.0,   54.9,   55.1,   54.8,   55.0,   54.8,   55.1,   55.0,   54.9,   55.2,   55.3,   55.2,  999.0
2005/10/31 08:10,  999.0,    0.5,    0.4,    0.0,    1.1,    4.1,  999.0,    2.9,    0.9,    2.9,    3.2,    3.0,    2.6,    2.4,    2.2,    2.5,  999.0,    2.6,  999.0,    5.3,  999.0,  999.0,  999.0,  999.0,  999.0,  999.0,  999.0,  999.0,  999.0,  999.0,   55.0,   55.0,   55.0,   55.0,   55.1,   55.0,   55.1,   55.1,   55.1,   55.1,   55.0,   55.1,   55.1,   55.1,   55.2,   55.3,   55.2,   55.0,   55.1,   55.2,   55.1,   55.1,   55.3,   55.0,   55.2,   55.2,   55.2,   55.0,  999.0,   55.2,  999.0,  999.0,   55.1
2005/10/31 08:20,  999.0,    1.5,    0.4,  999.0,    1.6,    4.8,    5.4,    3.5,    2.1,    2.3,    3.1,    3.5,    4.0,    3.0,    1.8,    2.4,    3.8,    3.5,    4.5,    6.3,  999.0,    7.9,  999.0,  999.0,  999.0,  999.0,  999.0,  999.0,  999.0,  999.0,  999.0,   55.0,   55.0,   55.0,   55.0,   55.1,   55.1,   55.1,   55.1,   55.2,   55.0,   55.1,   54.9,   55.1,   55.1,   55.1,   55.0,   55.1,   55.1,   54.9,   55.2,   55.0,   55.0,   55.0,  999.0,  999.0,  999.0,   55.1,   55.1,   55.0,   54.9,   54.9,  999.0
2005/10/31 08:30,  999.0,    2.5,    0.7,  999.0,    1.6,    4.5,    4.1,    4.2,    2.4,    0.8,    1.7,    1.9,    2.8,    3.0,    2.4,    3.9,    4.5,    3.9,    5.6,    6.3,  999.0,  999.0,  999.0,  999.0,  999.0,  999.0,  999.0,  999.0,   55.1,   54.6,   55.1,   55.0,   55.0,   55.1,   55.0,   55.0,   55.0,   54.9,   55.0,   54.8,   55.0,   55.1,   55.0,  999.0,   55.2,   55.1,  999.0,   55.1,   54.9,   55.1,   55.2,   54.8,   55.1,   55.2,   55.3,   55.2,   55.2,   55.3,   55.1,  999.0,   20.8,   -0.4,  999.0
2005/10/31 08:40,  999.0,    2.1,    0.4,  999.0,    1.8,    2.8,    2.4,    2.0,    1.4,    0.3,   -0.2,    0.2,    1.7,    2.1,    2.3,    3.0,    4.1,    3.3,    4.0,    6.2,    6.8,  999.0,  999.0,  999.0,  999.0,  999.0,  999.0,  999.0,  999.0,  999.0,   55.0,   55.1,   55.0,   55.1,   55.0,   55.0,   55.1,   55.2,   55.1,   55.1,   55.1,   55.1,   55.1,   55.1,   55.1,   55.3,   55.2,   55.2,   55.0,   55.2,   55.2,   55.4,   55.2,   54.8,   55.3,   55.2,  999.0,   55.1,  999.0,  999.0,  999.0,  999.0,  999.0
2005/10/31 08:50,  999.0,    2.5,    1.6,    0.9,    0.7,    1.8,    2.2,    3.4,    3.4,    3.0,    2.6,    3.2,    3.9,    4.1,    3.8,    4.3,    5.4,  999.0,  999.0,  999.0,  999.0,  999.0,  999.0,  999.0,  999.0,  999.0,  999.0,   54.8,   54.7,   54.9,   55.1,   55.0,   54.8,   54.9,   55.0,   55.0,   54.9,   55.0,   55.0,   54.9,   55.0,   55.1,   54.8,   54.9,   55.1,   54.7,   54.9,   54.8,   55.0,   55.1,   55.1,   55.1,   54.9,   54.8,   54.9,   55.2,   54.8,   55.0,   54.9,   54.9,   54.8,  999.0,  999.0
2005/10/31 09:00,  999.0,    2.7,    2.6,    2.3,    2.3,    3.1,    3.7,    4.7,  999.0,    3.7,    3.1,    2.9,    3.2,    3.2,    2.8,    3.6,    4.3,    4.2,    3.7,    4.9,  999.0,  999.0,  999.0,  999.0,  999.0,  999.0,  999.0,   54.9,  999.0,   54.8,  999.0,   18.5,   55.0,   36.5,   55.1,   55.0,   41.3,   41.4,   55.0,   41.2,   34.4,   55.0,   55.0,   55.1,   36.7,   44.3,   45.9,   36.5,   55.1,   41.4,   27.8,   55.1,   48.2,   27.7,   55.1,   55.0,   54.9,   55.2,   54.8,  999.0,   46.1,  999.0,  999.0
2005/10/31 09:10,  999.0,    2.2,    2.0,    1.6,    0.9,    3.6,    3.6,    4.3,    3.7,    4.0,    3.6,    3.1,    2.6,    2.8,    2.1,    3.1,    2.8,    3.1,    4.3,  999.0,  999.0,  999.0,  999.0,  999.0,  999.0,  999.0,  999.0,  999.0,  999.0,  999.0,  999.0,  999.0,  999.0,   -0.1,  999.0,  999.0,    0.0,    0.1,   -0.2,   -0.0,    0.1,    0.0,    0.1,   -0.0,    0.1,    0.2,   -0.1,    0.2,   -0.2,   -0.1,   -0.1,   -0.0,   -0.2,  999.0,   -0.1,  999.0,    0.1,   -0.0,  999.0,   -0.4,   -0.3,  999.0,  999.0
2005/10/31 09:20,  999.0,    2.1,    1.9,    0.6,    0.0,    2.8,    4.5,    5.2,    4.6,    5.4,    3.7,    2.3,    2.7,    3.2,    3.0,    2.9,    2.7,    3.3,    4.8,    4.9,    5.7,  999.0,  999.0,  999.0,  999.0,  999.0,  999.0,  999.0,  999.0,  999.0,   55.1,   55.0,   55.0,   41.4,   55.1,   55.1,   41.3,   41.3,   55.2,   55.0,   55.1,   55.0,   55.2,   55.3,   55.2,  999.0,   41.4,   36.7,   27.6,   36.8,   37.0,   36.8,   36.6,   36.7,   27.5,  999.0,   36.5,   54.9,   55.2,   36.4,   27.7,  999.0,  999.0
2005/10/31 09:30,  999.0,    1.8,    1.8,    0.4,    2.4,    4.8,    5.5,    3.4,    4.3,    5.6,    4.4,    3.0,    2.6,    1.7,    2.4,    2.6,    1.9,    2.0,    3.2,  999.0,  999.0,  999.0,  999.0,  999.0,  999.0,  999.0,  999.0,  999.0,  999.0,  999.0,  999.0,  999.0,   55.0,  999.0,   54.9,   54.9,   54.7,   54.7,   54.9,   54.8,   54.9,   54.9,   55.1,   54.8,   55.1,   54.6,   55.1,   54.8,   54.9,   54.9,   54.7,   55.2,   54.9,   55.0,   54.8,  999.0,  999.0,   54.7,  999.0,  999.0,   55.0,   54.8,   54.9
2005/10/31 09:40,  999.0,    1.3,    1.7,    1.9,    1.5,    4.4,    5.2,    4.3,    4.5,    5.3,    3.9,    2.5,    1.5,    1.8,    2.2,  999.0,    3.1,    3.7,    4.9,   -2.9,  999.0,  999.0,  999.0,  999.0,  999.0,  999.0,  999.0,  999.0,  999.0,   -0.3,   21.9,   13.5,   27.5,   27.4,   20.7,   27.4,   27.4,   22.0,   33.0,   38.6,   27.4,   36.5,   48.0,   38.5,   27.7,   38.3,   41.3,   27.6,   20.6,   33.0,   -0.5,   22.0,   14.7,   22.1,   27.3,   27.6,  999.0,    9.0,   18.5,   27.3,   55.1,  999.0,  999.0
2005/10/31 09:50,  999.0,    1.6,    1.4,    2.0,    3.9,    3.5,    4.4,    3.2,    2.7,    3.6,    3.8,    2.1,    1.8,    1.7,    2.0,    2.9,    3.4,    3.9,    4.6,    4.8,  999.0,  999.0,  999.0,  999.0,  999.0,  999.0,  999.0,  999.0,  999.0,  999.0,  999.0,   54.9,   54.9,   54.8,   55.1,   54.9,   54.9,   54.9,   54.9,   55.0,   54.8,   55.0,   55.2,  999.0,   55.1,  999.0,  999.0,   55.1,   55.0,   55.2,   55.5,  999.0,  999.0,  999.0,  999.0,  999.0,  999.0,  999.0,   54.7,  999.0,  999.0,  999.0,  999.0
2005/10/31 10:00,  999.0,    1.2,    1.2,    3.1,    5.1,    4.7,    4.8,    3.7,    3.3,    4.6,    4.0,    2.5,    2.7,    3.2,    4.1,    4.2,    4.2,    3.9,    4.7,    5.5,    5.8,  999.0,  999.0,  999.0,  999.0,  999.0,  999.0,  999.0,  999.0,  999.0,  999.0,   54.7,   54.6,   54.8,  999.0,   54.5,   54.6,   54.5,   54.9,   54.7,   54.7,   54.9,   54.9,   54.7,  999.0,   54.7,   54.5,   54.6,   54.8,   55.0,   54.8,   54.8,   54.7,   55.0,   54.7,   54.8,   54.6,   54.8,  999.0,  999.0,   54.8,  999.0,   55.1
2005/10/31 10:10,  999.0,    0.9,    1.0,    1.9,    5.4,    5.8,    6.0,    6.4,    5.8,    4.9,    3.5,    3.0,    3.1,    2.5,    2.0,    2.1,    3.2,    4.1,  999.0,  999.0,  999.0,  999.0,  999.0,  999.0,  999.0,  999.0,  999.0,  999.0,   27.6,   36.7,   36.7,   36.7,   36.7,   55.1,   34.4,   34.3,   34.4,   27.5,   27.6,   55.1,   55.3,   34.5,   27.5,   13.8,   27.7,   34.4,   34.5,   55.1,   55.1,   27.2,   55.1,   27.5,   50.6,   55.3,   55.2,   27.6,   55.3,  999.0,  999.0,   55.2,  999.0,   55.4,  999.0
2005/10/31 10:20,  999.0,    1.6,    0.9,    2.2,    5.3,    4.6,    4.5,    3.8,    3.8,    4.7,    3.4,    2.9,    1.9,    2.0,    1.3,    2.7,  999.0,  999.0,  999.0,  999.0,  999.0,  999.0,  999.0,  999.0,  999.0,  999.0,  999.0,   54.7,   54.8,   54.8,   54.8,   54.8,   54.9,   54.9,   54.9,   54.9,   54.8,   54.9,   50.4,   54.9,   54.6,   55.1,   54.8,   54.8,   27.1,   41.3,   41.2,   54.9,   41.3,   47.9,   54.7,   54.9,   45.8,   45.8,  999.0,   41.2,   54.9,   55.2,  999.0,  999.0,  999.0,  999.0,  999.0
2005/10/31 10:30,  999.0,  999.0,    1.4,    2.6,    4.1,    5.4,    6.1,    6.5,    5.5,    5.9,    5.0,    4.9,    3.1,    2.8,    2.2,    2.6,    3.2,    4.0,  999.0,  999.0,  999.0,  999.0,  999.0,  999.0,  999.0,  999.0,  999.0,  999.0,  999.0,  999.0,   41.1,   54.7,   41.1,   48.0,   54.7,   54.9,   54.9,   54.8,   55.1,   54.6,   54.7,  999.0,   17.7,  999.0,  999.0,  999.0,  999.0,  999.0,  999.0,  999.0,  999.0,  999.0,  999.0,  999.0,  999.0,  999.0,  999.0,  999.0,  999.0,  999.0,  999.0,  999.0,  999.0
2005/10/31 10:40,  999.0,    1.4,    2.0,    2.5,    5.1,    5.8,    6.1,    5.1,    4.8,    4.9,    4.3,    5.3,    3.7,    2.1,    2.8,    2.7,    3.2,    3.3,  999.0,  999.0,  999.0,  999.0,  999.0,  999.0,  999.0,  999.0,  999.0,  999.0,  999.0,  999.0,  999.0,   27.7,   45.6,   48.2,   48.2,   48.1,   48.1,   48.2,   48.1,   36.7,   48.3,   48.2,   41.3,  999.0,  999.0,  999.0,  999.0,  999.0,  999.0,   36.7,   48.2,   41.2,   54.9,   55.5,  999.0,  999.0,  999.0,  999.0,  999.0,  999.0,  999.0,  999.0,  999.0
2005/10/31 10:50,  999.0,    1.5,    1.5,    3.3,    5.5,    5.6,    5.6,    5.9,    5.5,    5.3,    5.3,    6.1,    5.0,    4.1,    4.9,  999.0,  999.0,  999.0,  999.0,  999.0,  999.0,  999.0,  999.0,   54.8,   54.8,   54.9,   48.5,   50.7,   54.8,  999.0,   41.2,   41.2,   36.6,   36.5,   41.2,   41.1,   27.4,   36.8,   41.2,   27.5,   41.2,   36.7,  999.0,   36.5,   27.7,  999.0,  999.0,  999.0,  999.0,  999.0,  999.0,  999.0,    0.3,  999.0,  999.0,  999.0,  999.0,  999.0,  999.0,  999.0,  999.0,  999.0,  999.0
2005/10/31 11:00,  999.0,    1.6,    1.5,    1.1,    5.1,    6.5,    6.3,    6.1,    6.2,    5.3,    5.6,  999.0,    6.5,    4.5,  999.0,  999.0,  999.0,  999.0,  999.0,  999.0,  999.0,  999.0,  999.0,   54.9,   54.9,   54.8,   54.9,   54.9,   54.9,   54.8,   54.9,   54.9,   54.9,   54.9,   54.9,   54.9,   54.3,   55.1,   55.1,   55.1,   55.0,   55.0,   55.0,   54.9,   55.0,   55.1,   55.0,   55.0,   55.0,   55.4,   55.1,   54.9,   55.0,  999.0,   55.0,  999.0,  999.0,  999.0,  999.0,  999.0,  999.0,  999.0,  999.0
2005/10/31 11:10,  999.0,    1.3,    0.8,    0.9,    4.1,    4.5,    4.8,    5.3,    4.5,    5.3,    4.2,    4.4,    4.6,    5.0,    4.6,    2.3,  999.0,    2.5,    1.7,  999.0,  999.0,  999.0,  999.0,  999.0,  999.0,  999.0,  999.0,  999.0,  999.0,  999.0,  999.0,  999.0,  -41.1,  -45.6,  -48.0,  -45.7,  -54.8,  -55.0,  -54.7,  -54.8,  -54.9,  -55.0,  -54.7,  999.0,  -55.0,  999.0,  -54.4,  999.0,  -54.8,  -54.4,  999.0,  999.0,  -54.8,  999.0,  999.0,  -41.0,  -41.3,  999.0,  -54.5,  999.0,  -54.6,  -54.8,  999.0
2005/10/31 11:20,  999.0,    1.4,    1.2,    1.1,    3.8,    5.1,    4.9,    4.9,    6.0,    5.8,    4.7,    4.5,    4.5,    4.1,    4.3,    3.2,    3.8,  999.0,  999.0,  999.0,  999.0,  999.0,  999.0,  999.0,  999.0,  999.0,  999.0,  999.0,  999.0,  -13.6,   -0.0,   -9.2,   -6.9,   -6.8,   -0.1,   -0.2,   -6.7,   -6.9,   -0.2,   -0.2,  999.0,  999.0,  999.0,  999.0,  999.0,  999.0,  -16.7,  999.0,  999.0,  999.0,  999.0,  999.0,  999.0,  999.0,  999.0,  999.0,  -27.3,  999.0,  999.0,  999.0,  999.0,  999.0,  999.0
2005/10/31 11:30,  999.0,    1.0,    0.6,    0.7,    2.3,    4.7,    5.6,    5.8,    5.7,    6.3,    5.2,    5.0,    5.7,    4.1,    3.4,    2.8,    3.4,    5.0,  999.0,  999.0,  999.0,  999.0,  999.0,  999.0,  999.0,  999.0,  999.0,  999.0,   28.0,  999.0,  999.0,  999.0,   49.9,  999.0,  999.0,  999.0,   55.0,   48.2,   45.9,   54.8,   45.8,   45.8,   54.7,   27.3,  999.0,  999.0,  999.0,   36.7,   54.9,   54.9,   55.1,   55.1,   55.0,  999.0,   54.9,   55.0,   54.9,  999.0,  999.0,  999.0,  999.0,  999.0,  999.0
2005/10/31 11:40,  999.0,    0.5,    1.9,    2.0,    4.7,    5.3,    6.3,    5.6,    6.3,    7.6,    6.4,    6.4,    5.7,  999.0,  999.0,  999.0,  999.0,  999.0,  999.0,  999.0,  999.0,  999.0,  999.0,  999.0,  999.0,  999.0,  999.0,  999.0,   30.8,   27.4,  999.0,  999.0,  999.0,  999.0,  999.0,  999.0,  999.0,  999.0,  999.0,  999.0,  999.0,  999.0,   55.0,   55.3,  999.0,  999.0,  999.0,   27.8,  999.0,  999.0,   54.6,   55.0,  999.0,  999.0,  999.0,  999.0,   55.3,  999.0,  999.0,  999.0,  999.0,  999.0,  999.0
2005/10/31 11:50,  999.0,    1.1,    1.4,    1.7,    4.8,    5.7,    7.1,    6.4,    6.0,    6.5,    6.1,  999.0,  999.0,  999.0,    3.5,    3.2,    3.8,    3.6,    7.5,   13.6,  999.0,  999.0,  999.0,  999.0,  999.0,  999.0,  999.0,  999.0,  999.0,  999.0,  999.0,   54.9,   54.9,   54.9,   55.0,   54.9,   55.0,   34.3,   22.0,   27.5,   27.4,   21.9,   -0.0,   -0.2,  999.0,    9.0,   -0.0,   27.5,   14.0,  999.0,  999.0,   13.8,    0.2,  999.0,   -0.2,   13.6,   -0.3,   18.4,   -0.1,    0.0,   -0.4,  999.0,   -0.1
2005/10/31 12:00,  999.0,    1.6,    1.0,    0.9,    5.8,    5.9,    7.4,    6.8,  999.0,    6.7,    6.6,    6.7,  999.0,    5.1,  999.0,    4.4,    1.8,    2.1,    2.1,    3.4,    4.2,    4.4,    4.0,    4.6,    5.5,    5.4,    5.3,  999.0,  999.0,  999.0,  999.0,  999.0,  999.0,  999.0,  999.0,  999.0,  999.0,   13.7,    9.3,   18.3,   13.7,   27.4,    0.0,   -0.1,   -0.0,   13.7,    7.0,   13.2,    9.3,    9.2,   13.7,   18.1,    7.0,   18.2,   13.3,   13.7,   13.8,    9.1,    0.1,    0.2,    0.1,   -0.2,   -0.2
2005/10/31 12:10,  999.0,    0.4,    0.4,    1.4,    3.2,    4.7,    7.1,    7.2,  999.0,    5.8,    6.5,    6.5,    6.2,    6.0,    5.8,    3.0,    2.1,    1.6,    2.0,    1.3,    2.4,  999.0,  999.0,  999.0,  999.0,  999.0,  999.0,  999.0,  999.0,  999.0,  999.0,  999.0,   55.0,   54.9,   54.9,   55.0,   54.9,   55.0,   55.0,   55.2,   55.2,   55.1,   55.2,   55.1,   55.3,   55.1,   54.9,   55.0,  999.0,   54.7,   55.1,   54.4,   55.2,  999.0,   54.9,  999.0,  999.0,   55.0,  999.0,  999.0,  999.0,  999.0,  999.0
2005/10/31 12:20,  999.0,    0.5,    0.4,    1.5,    3.4,    4.7,    6.3,    6.4,    6.1,    6.9,    6.5,    6.3,    5.7,    5.3,    5.0,    3.9,    2.2,    2.4,    2.6,    4.2,    4.6,  999.0,  999.0,  999.0,  999.0,  999.0,  999.0,  999.0,  999.0,  999.0,  999.0,  999.0,  999.0,   55.0,   55.0,   55.0,   54.9,   54.9,   55.0,   54.8,   54.9,   55.0,   55.0,   55.0,   55.0,   55.0,   55.1,   55.1,   54.8,   55.1,   55.0,   55.1,   54.9,   54.9,   55.3,  999.0,   55.2,   55.0,   55.0,   55.0,   55.1,   54.6,  999.0
2005/10/31 12:30,  999.0,  999.0,  999.0,  999.0,    6.8,    7.2,    8.9,    6.5,    7.1,  999.0,    6.7,    6.0,    5.1,    3.6,    4.2,    2.2,    2.0,    1.9,    3.1,  999.0,  999.0,  999.0,  999.0,  999.0,  999.0,  999.0,  999.0,  999.0,  999.0,  999.0,  999.0,  999.0,  999.0,  999.0,  999.0,  999.0,   48.1,   45.8,   45.9,   48.2,   41.3,   48.3,   36.6,   48.2,   46.1,   54.8,   48.2,   48.2,   36.9,  999.0,   48.0,  999.0,   54.6,   55.0,   54.7,  999.0,  999.0,   54.9,   41.0,   54.8,   54.6,  999.0,  999.0
2005/10/31 12:40,  999.0,    1.7,    1.3,    0.8,    4.4,    6.2,    5.8,    5.9,    5.8,    6.7,    7.1,    7.3,    5.6,    5.5,    4.8,    4.3,  999.0,  999.0,  999.0,  999.0,  999.0,  999.0,  999.0,  999.0,  999.0,  999.0,  999.0,  999.0,  999.0,  999.0,  999.0,  999.0,  999.0,  999.0,  999.0,   36.7,   48.2,   49.6,   48.1,   49.4,   55.0,   48.1,   49.5,   49.6,   48.0,   49.6,   49.6,   48.1,   49.5,   48.4,   49.6,   49.6,   55.0,   49.7,   55.2,   48.3,   41.4,   49.7,   48.3,   45.9,   45.8,   46.0,   46.1
2005/10/31 12:50,  999.0,    1.0,    0.6,    1.5,    4.9,    6.3,    5.4,    5.1,    5.3,    6.3,    6.4,    6.7,    6.3,    5.1,  999.0,  999.0,  999.0,  999.0,  999.0,  999.0,  999.0,  999.0,  999.0,  999.0,  999.0,  999.0,  999.0,  999.0,  999.0,  999.0,  999.0,  999.0,  999.0,   55.0,   55.0,   55.0,   55.0,   55.1,   54.9,   55.0,   55.1,   55.0,   55.0,   55.2,  999.0,   54.9,  999.0,  999.0,   54.6,   55.1,  999.0,   54.6,   54.9,  999.0,   55.1,   54.7,  999.0,  999.0,   54.8,  999.0,   54.7,   54.8,  999.0
2005/10/31 13:00,  999.0,    0.5,    0.3,  999.0,    4.4,    5.6,    5.8,    5.1,    3.9,    3.9,    4.3,    5.4,    5.2,    6.2,    4.2,    4.2,    2.9,    3.7,    4.5,    3.9,    4.6,  999.0,  999.0,  999.0,  999.0,  999.0,  999.0,  999.0,   54.6,  999.0,   54.8,   18.2,   18.2,   10.9,   13.7,   10.9,   10.9,   18.3,   13.8,   13.7,   18.3,   14.0,   10.9,   10.9,   18.6,   27.6,   13.7,   10.7,   18.5,   13.9,   36.5,   36.5,   36.4,   27.5,   27.8,   27.4,   18.3,   54.7,   27.8,   27.3,   36.6,  999.0,    0.5
2005/10/31 13:10,  999.0,    0.7,    0.9,    1.0,    3.7,    6.6,    4.9,    4.1,    3.2,    3.6,    3.2,    3.8,    3.3,    4.4,    4.8,    4.2,    3.1,    3.7,  999.0,  999.0,  999.0,  999.0,  999.0,  999.0,  999.0,  999.0,   54.8,   54.9,   54.9,   54.9,   54.9,   54.8,   54.9,   36.6,   41.2,   41.1,   41.1,   41.1,   41.0,   41.2,   41.1,   36.6,  999.0,  999.0,   27.4,  999.0,  999.0,  999.0,  999.0,  999.0,   55.0,  999.0,  999.0,  999.0,  999.0,  999.0,  999.0,   54.6,  999.0,  999.0,  999.0,  999.0,  999.0
2005/10/31 13:20,  999.0,    1.8,    1.4,    0.8,    3.2,    4.6,    3.9,    4.1,    3.8,    3.2,    3.8,    4.3,    5.0,    3.9,    5.0,    2.7,    3.8,    4.3,  999.0,  999.0,  999.0,  999.0,  999.0,  999.0,  999.0,  999.0,  999.0,   55.0,   54.7,   54.8,   55.0,   55.0,   55.0,   55.0,   54.9,   55.0,   55.0,   55.0,   54.9,   55.0,   54.9,   55.1,   54.9,   55.0,   55.1,   55.3,   55.1,   54.9,   54.9,  999.0,   55.1,   55.1,   55.0,  999.0,   55.0,   55.2,  999.0,   55.5,   55.0,   54.9,  999.0,   54.8,   55.1
2005/10/31 13:30,  999.0,    1.5,    1.1,    4.1,    4.4,    5.4,    5.0,    2.7,    0.6,    2.9,    3.9,    3.8,    3.7,    4.6,    4.0,    3.8,    2.2,    2.7,    3.2,    2.2,    2.7,  999.0,  999.0,  999.0,  999.0,  999.0,  999.0,  999.0,  999.0,  999.0,   54.9,   55.0,  999.0,   55.0,   48.0,   45.8,   45.8,   48.2,   48.0,   48.2,   48.2,   48.1,   45.8,   45.9,   46.0,   45.8,   45.9,   46.0,   55.0,   55.1,   45.8,   45.8,   46.0,   45.7,   41.2,   27.5,   54.7,   55.1,   27.2,   41.3,   45.9,   55.3,   41.3
2005/10/31 13:40,  999.0,    3.4,    5.0,    4.3,    5.5,    6.1,    5.3,    5.1,    4.9,    4.7,    3.8,    4.2,    4.9,    4.6,    4.2,    3.7,    2.0,    1.8,    1.6,    1.3,    0.7,    1.7,  999.0,    4.0,  999.0,    3.0,  999.0,  999.0,  999.0,  999.0,  999.0,  999.0,  999.0,  999.0,  999.0,  999.0,    9.2,    0.1,  999.0,   -0.3,    9.3,   27.3,   13.8,    9.2,    9.2,  999.0,   18.2,   27.4,  999.0,  999.0,   18.3,   18.4,  999.0,    0.1,   18.4,   18.5,   27.5,    9.3,    9.4,  999.0,    9.2,    0.1,  999.0
2005/10/31 13:50,  999.0,    3.1,    4.4,    4.4,    5.4,    5.2,    4.6,    4.9,    5.1,    5.1,    5.4,    4.8,    5.5,  999.0,    5.7,    4.9,    2.7,    2.3,    1.6,    1.5,  999.0,  999.0,  999.0,  999.0,  999.0,  999.0,  999.0,  999.0,  999.0,   -0.2,   -0.0,   -0.1,  999.0,   18.3,   13.8,   13.8,   13.9,   18.4,   13.6,   18.3,   18.4,   13.7,   13.8,   -0.1,    0.0,   13.8,  999.0,   13.9,    0.0,  999.0,   14.0,    0.1,   13.9,    0.1,   18.4,    0.1,   -0.0,    0.0,   -4.6,  999.0,   13.8,    0.1,  999.0
2005/10/31 14:00,  999.0,  999.0,    2.8,    6.0,    5.9,    4.3,    4.7,    5.5,    5.6,    6.4,    5.9,    5.9,    5.3,    5.6,    5.0,    4.8,    3.4,  999.0,  999.0,  999.0,  999.0,  999.0,  999.0,    0.8,    0.8,  999.0,    0.0,   18.3,    0.0,   18.4,   18.4,    0.0,   13.8,   11.0,   11.0,   11.0,   13.7,    6.9,   16.5,   18.2,   -0.0,   -0.0,   -0.0,    7.4,   13.8,    0.0,   -0.1,    9.3,    2.0,   -0.0,   14.9,  -18.5,   -0.0,   18.4,   16.5,   13.8,   14.9,   15.7,   -0.2,   18.3,   13.9,    2.7,   18.3
2005/10/31 14:10,  999.0,    1.4,    1.8,    2.0,    3.0,    4.3,    5.9,    7.0,    6.6,    6.6,    6.9,    6.9,    6.3,    4.8,    5.1,    3.7,  999.0,  999.0,  999.0,  999.0,  999.0,  999.0,  999.0,  999.0,  999.0,  999.0,  999.0,   28.0,   27.4,  999.0,   33.0,   27.5,  999.0,   27.4,   45.8,   48.2,  999.0,   49.5,   49.5,   48.1,   48.1,   49.4,   45.9,   49.4,   48.2,   41.1,   45.8,   45.7,   49.5,   45.8,   45.7,   48.2,   46.0,   41.3,   41.3,   27.5,  999.0,   49.4,   49.4,   41.2,   46.1,   45.2,  999.0
2005/10/31 14:20,  999.0,    1.5,    1.6,    1.8,    1.5,    1.0,    2.4,   -0.9,    3.9,    2.9,    6.6,   10.6,    9.9,  999.0,    6.5,    4.6,    4.7,    4.0,    4.8,    0.2,    0.6,    1.3,  999.0,  999.0,    2.5,  999.0,  999.0,  999.0,  999.0,  999.0,  999.0,  999.0,  999.0,  999.0,  999.0,   55.0,  999.0,   54.9,  999.0,   54.8,  999.0,   54.9,   55.1,   55.1,   54.9,   54.9,  999.0,  999.0,  999.0,   55.4,   55.1,   54.9,  999.0,  999.0,  999.0,  999.0,   55.3,   55.0,  999.0,   54.8,  999.0,  999.0,  999.0
2005/10/31 14:30,  999.0,    0.7,    1.2,    2.2,    3.3,    3.7,    4.9,    4.9,    4.7,    5.0,    4.8,    4.9,    4.7,    4.0,    3.9,    3.5,    1.8,    1.2,    0.1,  999.0,    3.1,  999.0,  999.0,  999.0,  999.0,  999.0,  999.0,  999.0,  999.0,  999.0,   45.9,  999.0,   45.9,   45.9,   48.0,   49.5,   49.5,   48.1,   55.0,   55.1,   55.0,   55.0,   49.5,   48.2,   49.5,   49.5,   45.7,   48.1,   47.9,   45.9,   54.8,   45.7,   45.9,   54.9,   45.9,   45.7,   45.6,   45.9,   36.6,   41.4,   27.2,  999.0,   27.3
2005/10/31 14:40,  999.0,    2.0,    2.6,    2.6,    3.1,    4.3,    5.7,    6.6,    6.0,    5.1,    3.6,    3.3,    3.6,    4.0,    4.0,    3.6,    2.0,    1.4,    4.6,    4.5,    3.6,    3.0,  999.0,  999.0,  999.0,  999.0,  999.0,  999.0,  999.0,  999.0,  999.0,  999.0,  999.0,  999.0,  999.0,   41.3,   48.1,   41.3,   55.0,   48.3,   48.2,   54.8,   41.4,   36.7,   27.8,   45.9,   41.1,   46.0,   45.9,   46.1,   36.5,   46.1,   41.4,  999.0,   54.8,  999.0,   45.8,   55.0,   41.3,   41.4,   55.3,   41.7,  999.0
2005/10/31 14:50,  999.0,    2.8,    4.1,    3.5,    1.9,    3.7,    4.4,  999.0,    5.4,    4.5,    4.3,    3.9,    4.0,    4.1,    3.8,    3.2,  999.0,    1.2,  999.0,    3.6,    3.5,    2.5,    1.6,    1.7,    1.7,    2.8,  999.0,  999.0,  999.0,  999.0,  999.0,   13.8,   31.7,   28.9,   27.4,   29.5,   35.0,   27.5,   38.4,   27.5,   27.6,   33.0,   45.8,   20.6,   27.4,   32.9,    0.1,   27.3,   27.4,   36.7,   21.8,   16.5,    6.9,   20.4,   27.5,  -13.8,   27.4,   36.5,   27.4,   18.2,   27.6,    0.1,   27.3
2005/10/31 15:00,  999.0,    1.5,    1.9,    0.6,    2.7,    3.2,    1.9,    1.6,    1.6,    2.6,    3.8,    3.8,    4.0,    3.2,    1.7,  999.0,  999.0,  999.0,  999.0,  999.0,  999.0,  999.0,  999.0,  999.0,  999.0,  999.0,  999.0,  999.0,  999.0,  999.0,  999.0,   55.0,   55.0,  999.0,   55.0,   55.0,   55.0,   55.1,   55.1,   55.0,   55.1,   55.1,   55.1,   55.1,   55.1,   55.0,   55.1,   55.2,   55.1,   55.2,   55.1,   55.2,   55.1,   55.0,   55.1,   55.0,   55.1,   55.3,   55.2,   55.1,   55.3,   55.4,   55.1
2005/10/31 15:10,  999.0,    1.7,    1.3,    0.5,    1.1,    1.8,    1.1,    0.4,    0.3,    0.3,    1.4,    1.9,    2.2,    2.1,    1.8,  999.0,    1.7,  999.0,  999.0,  999.0,  999.0,  999.0,  999.0,  999.0,  999.0,  999.0,  999.0,  999.0,  999.0,  999.0,   55.1,   55.0,   54.9,   55.0,   55.0,   54.8,   55.0,   55.0,   55.0,   54.9,   54.8,   55.0,   55.0,   55.1,   55.1,   55.0,   55.1,   55.1,   55.0,   55.0,   55.1,   55.1,   55.1,   55.2,   55.2,   55.2,   55.0,   55.0,   55.0,   55.1,   55.2,   54.9,  999.0
2005/10/31 15:20,  999.0,    1.0,    1.2,    0.9,    1.9,    1.9,    1.5,    1.7,    0.8,   -0.0,    0.9,  999.0,  999.0,  999.0,  999.0,  999.0,  999.0,  999.0,  999.0,  999.0,  999.0,  999.0,  999.0,  999.0,  999.0,   54.9,   55.1,  999.0,   55.1,   55.0,   55.1,   54.8,   54.9,   55.0,   55.0,   55.0,   55.1,   55.0,   55.1,   55.1,   55.0,   55.1,   55.0,   55.0,   54.9,  999.0,   55.2,   55.0,   55.2,   54.8,   54.9,   55.1,   55.2,   54.8,   55.2,   55.0,   55.0,   55.0,   55.1,   55.1,   55.1,   55.2,   55.1
2005/10/31 15:30,  999.0,    0.7,    0.9,    0.7,    1.3,    2.4,    2.5,    1.4,    0.5,    1.1,    0.7,    1.2,    0.9,    0.7,   -0.2,    0.2,    0.9,  999.0,  999.0,  999.0,  999.0,  999.0,  999.0,  999.0,  999.0,  999.0,  999.0,  999.0,  999.0,  999.0,  999.0,   54.9,   55.0,   55.0,   55.0,   55.0,   54.9,   55.0,   55.0,   55.1,   55.0,   55.2,   55.1,   55.1,   55.2,   55.1,   55.0,   55.1,   55.1,   55.3,   55.0,   54.9,   55.0,   55.3,   55.1,   55.2,   55.3,   54.9,   54.9,   55.0,   54.9,  999.0,   55.3
2005/10/31 15:40,  999.0,    1.1,    1.7,    1.3,    1.7,    1.9,    0.8,    1.5,    0.7,    1.2,    0.9,   -0.2,    0.2,   -0.0,    0.0,  999.0,  999.0,  999.0,  999.0,  999.0,  999.0,  999.0,  999.0,  999.0,  999.0,  999.0,  999.0,  999.0,  999.0,  999.0,   55.0,   55.0,   54.9,   54.9,   54.9,   55.0,   55.0,   55.0,   55.1,   55.1,   55.1,   55.1,   55.1,   55.1,   55.0,   55.0,   55.2,   54.9,   55.1,   55.0,   55.0,   55.1,   54.9,   55.0,   55.4,   55.1,   54.8,   55.2,  999.0,   54.9,  999.0,  999.0,   54.8
2005/10/31 15:50,  999.0,    1.6,    1.5,    3.6,    2.2,    2.1,    2.7,    2.5,    2.7,    2.6,    1.9,    1.6,    0.7,    0.6,  999.0,  999.0,  999.0,  999.0,  999.0,  999.0,  999.0,  999.0,  999.0,  999.0,  999.0,  999.0,  999.0,  999.0,  999.0,  999.0,  999.0,  999.0,   55.0,   55.2,   55.1,   55.0,   55.0,   55.0,   55.0,   55.0,   55.1,   55.0,   55.1,   55.0,   55.2,   55.1,   55.2,   54.9,   55.1,   55.1,   55.2,   55.1,   55.1,   55.1,   55.2,   55.3,   55.1,   55.1,   55.3,   55.0,   55.1,   55.2,   55.1
2005/10/31 16:00,  999.0,    1.2,    1.8,    1.7,    3.6,    3.9,    2.9,    2.3,    1.6,    1.1,    0.8,    0.3,    0.4,    0.3,  999.0,  999.0,  999.0,  999.0,  999.0,  999.0,  999.0,  999.0,  999.0,  999.0,  999.0,  999.0,  999.0,  999.0,  999.0,  999.0,  999.0,  999.0,  999.0,  999.0,   54.8,   54.9,   54.9,   55.0,   55.0,   55.1,   55.0,   55.1,   54.9,   55.0,   55.1,   55.1,   55.1,   55.1,   54.9,   55.2,   55.1,   55.0,   55.1,   55.2,   55.2,   54.9,   54.9,   55.0,   55.2,   55.1,   54.9,   55.1,   54.9
2005/10/31 16:10,  999.0,    1.6,    2.6,    1.8,    3.6,    3.4,    2.7,    2.4,    1.7,    0.7,    0.7,  999.0,    1.3,  999.0,  999.0,  999.0,  999.0,  999.0,  999.0,  999.0,  999.0,  999.0,  999.0,  999.0,  999.0,  999.0,  999.0,  999.0,  999.0,  999.0,  999.0,  999.0,  999.0,  999.0,   27.4,   13.6,   13.7,   13.6,   13.6,   13.7,   13.7,   18.2,   18.2,   13.6,   18.3,   13.7,   13.6,   18.3,   27.6,   13.9,   27.6,   13.7,   18.1,  999.0,   18.4,   27.1,   27.4,    0.1,   27.0,   27.8,  999.0,  999.0,   27.7
2005/10/31 16:20,  999.0,    1.8,    2.3,    2.5,    3.3,    2.9,    2.2,    2.1,    1.8,    1.1,    1.3,    1.4,    0.0,    0.7,  999.0,    2.1,  999.0,  999.0,   15.7,   16.2,  999.0,  999.0,  999.0,  999.0,  999.0,  999.0,  999.0,  999.0,   54.9,   45.6,   36.6,   47.9,   41.2,   48.2,   38.5,   34.3,   38.5,   48.1,   44.1,   38.5,   44.0,   43.9,   44.0,   49.6,   41.1,   48.1,   44.0,   48.0,   36.7,   49.5,   45.9,   43.9,   38.4,   41.1,   45.5,   44.0,   38.4,   41.3,   49.5,   54.8,   41.6,   27.4,   55.1
2005/10/31 16:30,  999.0,    2.0,    2.3,    3.0,    3.4,    3.5,    3.0,    1.9,    1.1,    0.2,    1.1,  999.0,  999.0,  999.0,  999.0,  999.0,  999.0,  999.0,  999.0,  999.0,  999.0,  999.0,  999.0,  999.0,  999.0,  999.0,  999.0,  999.0,  999.0,   54.9,   55.0,   54.9,   55.0,   55.0,   55.0,   55.1,   55.0,   55.1,   55.0,   55.1,   55.0,   55.2,   55.1,   55.2,   55.1,   55.0,   55.1,   55.0,   55.0,   55.1,   55.2,   55.0,   55.2,   55.2,   55.2,   55.2,   55.2,   55.1,   55.3,   55.2,   55.3,   55.1,   55.3
2005/10/31 16:40,  999.0,    0.9,    1.8,    2.7,    3.4,    3.1,    2.8,    1.8,    2.1,    2.8,    1.8,    1.2,  999.0,  999.0,    0.4,  999.0,  999.0,  999.0,  999.0,  999.0,  999.0,  999.0,  999.0,  999.0,  999.0,  999.0,   54.7,   54.8,   41.3,   54.9,   33.0,   43.9,   54.9,   34.3,   41.2,   54.9,   38.5,   34.3,   38.5,   38.5,   34.3,   38.5,   38.5,   38.6,   44.0,   38.4,   38.4,   44.0,   38.6,   38.4,   38.5,   41.3,   41.2,   38.5,   54.8,   36.7,   34.3,   33.0,   36.6,   27.6,   54.7,   34.4,   27.4
2005/10/31 16:50,  999.0,    1.3,    1.6,    1.6,    2.0,    1.7,    1.4,    0.6,    0.0,    1.0,    1.1,  999.0,  999.0,  999.0,   -0.2,   -0.6,   -0.1,    1.0,    2.1,    2.7,    3.0,  999.0,  999.0,  999.0,  999.0,  999.0,  999.0,  999.0,  999.0,  999.0,  -14.0,  -27.6,   18.4,   20.4,   27.1,   27.3,   20.6,   20.5,   36.4,   20.5,   20.7,   27.5,   20.5,   20.5,  999.0,    8.9,   20.5,   54.6,   20.4,   20.6,   27.3,   18.2,   20.5,   36.7,   18.3,   20.7,   18.1,   20.6,  -13.8,    9.2,   27.6,    9.1,    9.1
2005/10/31 17:00,  999.0,    0.9,    1.5,    1.7,    2.5,    1.5,    1.3,    0.9,    1.8,    3.0,    3.2,    3.4,    1.6,  999.0,    0.7,    1.2,    1.8,    1.9,    2.8,    2.6,    1.8,  999.0,  999.0,  999.0,  999.0,  999.0,  999.0,  999.0,  999.0,  999.0,  999.0,   55.0,   54.9,   54.9,   54.9,   55.2,   55.0,   55.1,   55.0,   54.8,   55.0,   41.3,   54.8,   49.5,   49.6,   36.6,   49.4,   55.1,   55.1,   49.4,   55.1,   41.4,   49.5,   54.9,   55.4,   49.5,   49.6,   55.4,   49.5,   55.1,  999.0,  999.0,   55.1
2005/10/31 17:10,  999.0,    1.2,    1.2,    2.4,    0.3,    0.8,    0.8,    0.5,    2.1,    3.3,    2.8,    2.9,    1.6,    2.2,    2.6,    2.2,    1.2,    1.4,    1.2,    1.7,  999.0,  999.0,  999.0,  999.0,  999.0,  999.0,  999.0,  999.0,  999.0,  999.0,  999.0,  999.0,  999.0,  999.0,  999.0,  999.0,  -27.3,  -13.8,  999.0,  -13.7,    0.0,   -6.8,   -6.8,   -0.0,   -6.7,   -6.9,   -7.0,   -6.9,   -6.8,    0.0,   -6.7,   -6.9,  -13.8,   -6.7,   -6.8,   -6.9,    0.3,   -0.1,   -9.1,  999.0,  999.0,  999.0,  999.0
2005/10/31 17:20,  999.0,  999.0,   -0.9,   -1.4,   -0.3,  999.0,   -0.3,    1.6,    3.1,    4.1,    3.8,    3.7,    3.1,    3.0,    2.1,    2.3,    1.7,    1.5,    1.1,    1.3,  999.0,  999.0,  999.0,  999.0,  -13.7,  999.0,  999.0,  999.0,  999.0,  999.0,   -0.1,    0.2,  999.0,    9.1,   55.1,   13.7,    0.1,  -27.4,  -13.7,  -27.3,  -21.8,   -0.1,  -20.5,  -16.3,  -18.3,  -27.4,  -32.7,  -27.4,  -27.5,  -32.9,  -20.5,  -33.0,  -32.9,  -20.5,  -27.4,  -38.3,  -20.5,  -27.4,  -38.6,  -27.4,  -27.3,  -54.9,  999.0
2005/10/31 17:30,  999.0,    2.0,  999.0,  999.0,    1.2,    2.8,    2.0,    3.1,    3.2,    3.5,    3.7,    3.8,    2.9,  999.0,    1.8,  999.0,  999.0,    1.9,    1.2,    2.0,  999.0,  999.0,  999.0,  999.0,  -12.5,  999.0,  999.0,    0.2,   -0.3,  999.0,   -0.1,   -0.4,   32.0,   27.4,   -0.2,   27.3,   21.5,   13.5,  999.0,   13.8,   13.7,   20.6,   20.6,   20.6,    0.3,    7.0,   13.8,  -13.4,   18.4,   27.5,    0.5,   18.3,   18.3,  999.0,    0.3,   27.6,   26.9,   27.2,   27.3,  999.0,   36.5,   27.2,  999.0
2005/10/31 17:40,  999.0,  999.0,  999.0,  999.0,  999.0,  999.0,  999.0,    4.6,    4.7,    5.3,    5.2,    3.3,    3.7,    3.2,    2.8,    2.0,    1.4,    1.8,    1.5,    2.4,  999.0,  999.0,  999.0,  999.0,  999.0,    0.2,    0.1,  -13.7,   -9.1,   -9.2,   13.6,    0.0,  999.0,    0.0,    9.3,   13.7,    0.0,   -0.0,  -13.5,   -0.1,   -6.9,   -9.0,   13.7,   -6.8,  -13.7,   27.2,   13.7,  999.0,    6.8,    0.1,   -9.1,   -7.1,  -18.4,  -18.2,  -13.6,  999.0,    0.2,   -9.1,  999.0,  -13.3,  -41.2,  999.0,  -27.4
2005/10/31 17:50,  999.0,  999.0,    1.9,  999.0,    2.6,  999.0,  999.0,  999.0,  999.0,  999.0,    3.5,  999.0,  999.0,    3.8,    2.7,    1.9,    1.7,    2.8,    2.6,    3.6,  999.0,  999.0,  999.0,  999.0,  999.0,   -0.4,    0.0,   27.4,   27.4,   27.3,   13.7,   45.9,   27.6,   19.1,   27.4,   19.8,   20.7,   21.9,    0.0,   20.5,   21.9,   13.7,   21.8,   21.9,   27.5,   27.3,   41.3,   45.4,   18.4,   27.4,   20.6,   41.6,   13.8,   40.9,   27.6,  999.0,   18.3,   27.9,  999.0,  -27.3,    0.0,  999.0,  999.0
2005/10/31 18:00,  999.0,  999.0,  999.0,  999.0,  999.0,  999.0,  999.0,  999.0,  999.0,  999.0,  999.0,  999.0,  999.0,   -0.1,  999.0,  999.0,    1.7,    3.5,    2.5,    1.6,  999.0,  999.0,  999.0,  999.0,  999.0,  999.0,  999.0,  999.0,  999.0,  999.0,  999.0,    5.0,   -0.1,  999.0,   -0.2,  999.0,   27.5,   -0.1,   -0.1,  999.0,  999.0,   -0.1,   -0.0,  999.0,   -0.0,  999.0,  999.0,  999.0,   -0.1,  999.0,   -0.1,    0.0,  999.0,    0.2,  999.0,    0.4,    0.1,    0.0,  999.0,  999.0,  999.0,  999.0,  999.0
2005/10/31 18:10,  999.0,    0.2,    0.7,  999.0,   -3.7,  999.0,  999.0,  999.0,  999.0,  999.0,  999.0,  999.0,  999.0,  999.0,  999.0,  999.0,  999.0,  999.0,  999.0,    1.8,  999.0,  999.0,  999.0,  999.0,  999.0,  999.0,  999.0,  999.0,   13.8,    3.7,    0.0,    7.0,    1.5,    8.5,    6.9,   -0.2,  999.0,    9.1,    0.2,    0.1,    0.0,   -0.0,    0.0,    0.2,    0.1,    0.0,    0.1,    0.1,    0.2,    0.2,    0.1,    0.0,    0.3,   -0.0,    0.2,   -0.0,    0.0,    0.1,    2.7,   -0.0,  999.0,    5.3,    5.0
2005/10/31 18:20,  999.0,    0.1,    0.5,   -2.0,  999.0,  999.0,  999.0,  999.0,  999.0,  999.0,  999.0,  999.0,  999.0,  999.0,  999.0,  999.0,  999.0,  999.0,  999.0,  999.0,  999.0,  999.0,  999.0,  999.0,  999.0,  999.0,  999.0,  999.0,    0.1,   -0.2,   -0.1,    0.5,   -0.5,   -0.0,   -0.2,  -13.9,  -18.5,  -14.1,  -14.0,  -18.6,  -14.2,  -18.4,  -14.2,  -18.6,  -14.0,  -18.5,  -13.9,   -6.2,    6.4,  -18.7,  -13.8,    9.4,  -18.4,  -13.9,   -0.1,    0.3,  -13.9,   -0.1,  999.0,   -0.0,  999.0,  999.0,  999.0
2005/10/31 18:30,  999.0,    1.4,    1.2,   -1.1,   -0.6,   -0.9,   -0.7,  999.0,  999.0,  999.0,  999.0,  999.0,  999.0,  999.0,  999.0,  999.0,    0.5,    1.4,   -2.4,    2.7,  999.0,  999.0,  999.0,  999.0,  999.0,  999.0,  999.0,   -0.2,  999.0,    1.3,    0.4,    1.0,    0.1,   -0.2,   -0.0,   -0.1,   -9.3,   -7.0,    0.4,   -9.1,  -18.3,  -27.5,   -8.9,   -9.0,  -13.9,  -27.2,   -9.2,  -18.3,   -9.6,  -13.8,  999.0,  -18.3,  -18.3,    0.0,  999.0,  999.0,  999.0,   14.1,  999.0,   -0.0,   -6.9,   -9.1,   -2.4
2005/10/31 18:40,  999.0,  999.0,  999.0,  999.0,  999.0,  999.0,  999.0,  999.0,  999.0,  999.0,  999.0,  999.0,  999.0,  999.0,  999.0,  999.0,  999.0,  999.0,  999.0,  999.0,  999.0,  999.0,  999.0,  999.0,  999.0,  999.0,  999.0,  999.0,  999.0,  999.0,  -27.6,  -18.4,  -13.8,  -27.6,  -27.5,  -18.4,  -13.7,  -13.8,    0.1,  999.0,  -13.7,  999.0,  -27.5,  -27.6,  999.0,  -27.6,  999.0,  999.0,  999.0,  -18.4,  -13.7,  999.0,  -18.5,  -36.8,  -27.9,  -18.5,  999.0,  999.0,  -14.0,  999.0,  999.0,  -41.3,  -13.8
2005/10/31 18:50,  999.0,  999.0,  999.0,  999.0,  999.0,  999.0,  999.0,  999.0,  999.0,  999.0,  999.0,  999.0,  999.0,  999.0,  999.0,  999.0,  999.0,  999.0,  999.0,  999.0,  999.0,  999.0,  999.0,  999.0,  999.0,  999.0,  999.0,  999.0,  999.0,  999.0,    0.2,    0.2,   -0.0,   -0.1,   -0.8,    0.1,    0.1,   -0.0,    0.1,  999.0,    0.0,    0.2,    0.1,   -0.3,    0.0,    0.1,   -0.1,   -0.0,   -0.1,   -0.0,    0.0,    0.1,   -0.2,    0.1,   -0.0,   -0.1,   -0.1,    0.2,   -0.3,   -0.2,  999.0,    0.0,  999.0
2005/10/31 19:00,  999.0,  999.0,  999.0,  999.0,    0.2,  999.0,    3.8,  999.0,  999.0,  999.0,  999.0,  999.0,  999.0,   -0.6,  999.0,  999.0,  999.0,  999.0,   -5.5,   -4.9,  999.0,  999.0,  999.0,  999.0,  999.0,  999.0,  999.0,  999.0,  999.0,   20.6,  999.0,  999.0,  999.0,  999.0,  999.0,  999.0,  999.0,  999.0,   21.1,  999.0,  999.0,  999.0,  999.0,  999.0,  999.0,  999.0,  999.0,  999.0,  999.0,  999.0,  999.0,  999.0,  999.0,   17.4,  999.0,  999.0,  999.0,  999.0,  999.0,  999.0,  999.0,  999.0,  999.0
2005/10/31 19:10,  999.0,    1.8,  999.0,  999.0,  999.0,  999.0,   -1.9,  999.0,   -4.9,  999.0,  999.0,  999.0,  -12.8,  999.0,  -11.6,  999.0,   -7.4,  999.0,  999.0,  999.0,  999.0,  999.0,  999.0,  999.0,  999.0,  999.0,  999.0,  999.0,  999.0,  999.0,  999.0,    0.2,   -0.2,  999.0,   -0.1,   -0.1,   -0.1,    0.2,    0.1,    0.1,    0.0,    0.0,    0.0,   -0.1,   -0.1,  999.0,  999.0,    0.0,  999.0,   -0.0,   -0.0,  999.0,   -0.1,    0.0,  999.0,  999.0,  999.0,  999.0,  999.0,  999.0,  999.0,  999.0,   -0.1
2005/10/31 19:20,  999.0,    1.4,    2.6,  999.0,    2.1,   -1.9,    2.8,  999.0,  999.0,    0.1,  999.0,   -2.1,   -5.5,   -3.6,  999.0,    0.1,  999.0,   -6.0,  999.0,  999.0,  999.0,  999.0,  999.0,  999.0,  999.0,  999.0,  999.0,  999.0,  999.0,  999.0,  999.0,   -2.5,  999.0,   -0.0,    1.7,  999.0,  999.0,    0.2,    0.2,    0.2,  999.0,  999.0,   -0.0,  999.0,    0.0,  999.0,    0.0,    0.1,    0.2,    0.1,  999.0,    0.2,    0.0,   -0.1,   -0.2,   -0.1,  999.0,   -0.2,    0.1,    0.2,   -0.2,    0.1,  999.0
2005/10/31 19:30,  999.0,    0.2,  999.0,    1.3,  999.0,  999.0,  999.0,  999.0,  999.0,  999.0,  999.0,  999.0,  999.0,  999.0,  999.0,  999.0,  999.0,  999.0,  999.0,  999.0,  999.0,  999.0,  999.0,  999.0,  -53.7,  999.0,  -54.2,  -55.2,  -54.9,  -54.6,  -54.9,  -55.0,  -55.0,  -55.0,  -45.9,  -27.4,  -27.5,  -27.5,  -41.2,  -27.5,  -36.7,  -41.2,  -27.5,  -27.4,  -18.4,  -27.4,  -45.9,  -34.6,  -33.1,  -45.9,  -27.2,  -27.6,  -41.3,  -27.5,  -48.3,  -41.1,  -13.3,  -34.6,  -55.1,  -27.8,  -48.2,  -27.5,  -46.0
2005/10/31 19:40,  999.0,  999.0,    2.2,    1.9,    1.3,  999.0,  999.0,    2.1,  999.0,  999.0,  999.0,  999.0,  999.0,  999.0,   -3.2,   -1.0,   -6.7,  999.0,   -5.3,  -10.1,   -8.7,  -10.1,  999.0,  999.0,  999.0,  999.0,  999.0,  999.0,  999.0,  999.0,  999.0,  -26.8,   -9.1,   -5.3,   -7.4,  -13.7,   -7.0,   -6.7,  -13.6,   -0.0,   -9.2,   -9.1,   -7.0,   -9.0,   -8.9,   -6.8,   -9.2,  -13.7,    0.0,  -13.8,   -0.1,   -0.1,    0.2,  999.0,   -0.0,  999.0,   -0.2,   -0.0,  999.0,   -0.4,    0.3,   -0.2,  999.0
2005/10/31 19:50,  999.0,  999.0,  999.0,  999.0,  999.0,  999.0,  999.0,  999.0,  999.0,  999.0,  999.0,  999.0,  999.0,  999.0,  999.0,  999.0,  999.0,  999.0,  999.0,   -8.1,  999.0,  999.0,  999.0,  999.0,  999.0,  999.0,   -0.8,  -15.1,   -1.6,   -9.6,    0.4,   -0.1,    0.1,   -0.1,    0.2,   -0.3,    0.3,   -0.0,   -6.8,   -5.3,  -11.0,   -5.7,   -0.0,   -6.7,   -6.9,    0.1,    0.0,    0.2,    0.2,   -0.1,    0.2,   -0.0,   -0.1,    0.1,    0.2,    0.0,   -0.1,    0.1,    0.1,    0.0,    0.1,  999.0,    0.1
2005/10/31 20:00,  999.0,  999.0,  999.0,    1.4,  999.0,  999.0,  999.0,  999.0,  999.0,  999.0,  999.0,  999.0,  999.0,  999.0,  999.0,   -7.6,  999.0,  999.0,  999.0,  999.0,  999.0,  999.0,  999.0,  999.0,  999.0,  999.0,  999.0,  999.0,  999.0,  999.0,  999.0,   -3.4,  999.0,   -0.5,    0.4,   -0.2,    0.1,    0.1,   -9.2,    0.0,    0.2,   -5.4,  999.0,    0.1,    0.3,    0.4,    0.1,    0.1,  999.0,   -0.1,    0.0,    2.9,    0.0,  -27.8,  -27.4,    0.0,  -18.1,  -27.4,  -27.5,  999.0,  -18.3,    0.2,  999.0
2005/10/31 20:10,  999.0,    1.0,    0.9,   -0.5,  999.0,   -0.7,    2.1,  999.0,  999.0,  999.0,  999.0,   -3.3,  999.0,  999.0,  999.0,  999.0,  999.0,  999.0,  999.0,  -13.0,  999.0,  999.0,  999.0,  999.0,  999.0,  999.0,  999.0,  -31.5,  999.0,  -28.5,  999.0,  -36.8,  999.0,  -36.7,  -36.7,  999.0,  -36.5,  -36.8,  -55.0,  -55.0,  -36.7,  -27.7,  -36.7,  -36.9,  -27.6,  -36.7,  -27.7,  -36.8,  999.0,  999.0,  999.0,  -27.2,  -27.2,  999.0,  999.0,  999.0,  -27.1,  999.0,    0.2,  999.0,  999.0,  999.0,  999.0
2005/10/31 20:20,  999.0,  999.0,  999.0,  999.0,  999.0,  999.0,  999.0,  999.0,  999.0,  999.0,   -8.0,  999.0,  999.0,  999.0,  999.0,  999.0,  999.0,  999.0,  999.0,  999.0,  999.0,  999.0,  999.0,  999.0,  999.0,  999.0,  999.0,  -55.0,  -55.1,  -55.1,  -55.0,  -55.2,  -55.0,  -55.0,  -55.2,  -55.1,  -54.9,  999.0,  -54.9,  -55.3,  999.0,  -54.9,  -55.2,  999.0,  -54.7,  -54.6,  999.0,  999.0,  999.0,  999.0,  999.0,  999.0,  999.0,  999.0,  999.0,  999.0,  -36.9,  999.0,  999.0,  999.0,  999.0,  999.0,  999.0
2005/10/31 20:30,  999.0,  999.0,  999.0,  999.0,  999.0,  999.0,  999.0,  999.0,  999.0,  999.0,  999.0,  999.0,  999.0,  999.0,  -11.9,  999.0,  999.0,  999.0,  999.0,  -10.6,  999.0,  999.0,  999.0,  999.0,  999.0,  999.0,  999.0,  999.0,  999.0,  999.0,  -27.5,  -18.4,  -18.3,  -10.7,  -11.1,  -11.0,  -11.0,  -10.9,    0.2,  -10.9,  -10.9,  -11.0,  -18.3,  -11.0,  -10.8,  -18.3,  -11.0,  -10.9,   -0.0,  -11.0,  -10.9,    0.1,  -27.4,  -13.7,   -0.1,  -13.9,  -18.1,    0.0,  -18.2,  -18.7,  999.0,  999.0,  999.0
2005/10/31 20:40,  999.0,  999.0,  999.0,  999.0,  999.0,    0.9,  999.0,  999.0,  999.0,  999.0,  999.0,  999.0,  999.0,   -8.2,  999.0,   -9.4,  999.0,  999.0,  999.0,   -9.4,  999.0,  999.0,  999.0,  999.0,  999.0,  999.0,  999.0,  999.0,  999.0,  999.0,  999.0,    0.2,  999.0,    0.1,    0.4,  999.0,  999.0,    0.2,   -0.3,   -0.0,    0.5,   -0.2,    0.4,    0.4,  999.0,  999.0,  999.0,   -0.2,  999.0,  999.0,    0.2,   -0.2,    0.0,   -0.2,    0.2,  999.0,    0.4,    0.5,    0.7,  999.0,   -0.1,  999.0,  999.0
2005/10/31 20:50,  999.0,  999.0,  999.0,    0.1,    5.4,  999.0,  999.0,  999.0,  999.0,  999.0,  999.0,   -3.4,   -8.9,  999.0,  999.0,  999.0,  -13.5,  999.0,  999.0,  999.0,  999.0,  999.0,  999.0,  999.0,  999.0,  999.0,  999.0,  -55.2,  -55.1,  -55.1,  -54.9,  -55.0,  -55.0,  -54.9,  -55.0,  -55.0,  -54.9,  -55.0,  -55.0,  -54.9,  -55.1,  -55.1,  -55.0,  -55.1,  -55.1,  -54.9,  -55.0,  -55.1,  -55.1,  -55.1,  -55.0,  999.0,  -27.6,  999.0,  -27.4,  -36.9,  -27.7,  -27.7,  -41.4,  -27.5,  999.0,  -55.6,  -27.4
2005/10/31 21:00,  999.0,  999.0,  999.0,    2.0,  999.0,  999.0,  999.0,  999.0,   -3.4,  999.0,  999.0,  999.0,  999.0,  999.0,  -10.3,   -9.9,  -12.3,  -12.8,  999.0,  999.0,  999.0,  999.0,  999.0,  999.0,   -0.1,    0.2,  -13.7,  -27.1,  -17.4,  -27.6,  -13.6,  -27.7,  -27.5,   -0.1,  -27.2,  -27.4,  -13.6,  -41.3,  -27.5,  999.0,  -41.0,  -27.4,  -13.6,  -27.3,  -27.4,  -13.6,  999.0,  -27.3,  -13.7,  999.0,  -27.3,   -0.1,   -0.1,   -0.2,    0.0,   -0.2,  -13.3,   -9.1,  999.0,  -18.0,   -9.0,  -27.6,   -7.0
2005/10/31 21:10,  999.0,    1.3,  999.0,    0.5,    2.2,    2.9,    1.9,  999.0,  999.0,  999.0,  999.0,  999.0,  999.0,  999.0,  -10.0,   -9.6,  -12.2,  999.0,  999.0,  999.0,  999.0,  999.0,  999.0,  999.0,  999.0,  999.0,  999.0,  -42.8,  999.0,  999.0,  -54.4,  -43.7,  999.0,  -54.4,  -54.8,  999.0,  -54.9,  -41.0,  -55.1,  -36.5,  -41.0,  -54.6,  999.0,  -41.1,  -54.8,  -27.0,  -36.5,  -54.4,  -27.7,  -27.4,  -54.3,  -27.4,  999.0,  -26.8,  999.0,  -18.3,  -36.6,  -55.0,  -36.5,  -27.3,  -41.2,   -0.0,  -18.1
2005/10/31 21:20,  999.0,    1.1,    1.0,    0.6,    2.0,  999.0,  999.0,  999.0,  999.0,  999.0,  999.0,  999.0,   -7.7,   -6.9,   -7.7,   -7.3,  999.0,  999.0,  999.0,  999.0,  999.0,  999.0,  999.0,  999.0,  999.0,  999.0,  -45.7,  -41.1,  -54.6,  -27.5,  -45.7,  -41.5,  -28.3,  -45.8,  -27.4,  -27.5,  -18.3,  -27.5,  -27.6,  -27.4,  -27.5,  -27.3,  -27.5,  -36.7,  -41.5,  -41.2,  -36.6,  -36.6,  -55.0,  999.0,  -41.4,   -0.1,   -0.1,  999.0,   -7.1,  -13.8,  -27.7,  -18.4,  -27.8,  999.0,  -14.0,  -13.8,  -18.1
2005/10/31 21:30,  999.0,  999.0,  999.0,    0.4,   -0.5,  999.0,  999.0,  999.0,  999.0,  999.0,  999.0,  999.0,  999.0,  999.0,  999.0,  999.0,  999.0,  999.0,  999.0,  999.0,  999.0,  999.0,  999.0,  999.0,  999.0,  999.0,  999.0,  999.0,  999.0,    0.0,  999.0,  999.0,    0.1,  999.0,   11.7,    0.1,   -0.0,   -0.2,  999.0,   -0.2,  999.0,    0.0,   -0.1,   12.1,   -0.3,    0.5,   -0.2,   -0.3,   -0.2,    0.0,   -0.3,    0.1,    2.4,  999.0,    0.1,  -18.3,  -27.7,  -28.1,  -24.8,  999.0,  999.0,  999.0,  -24.6
2005/10/31 21:40,  999.0,   -2.5,  999.0,   -0.2,    2.3,  999.0,   -0.4,  999.0,  999.0,  999.0,  999.0,  999.0,   -7.7,  999.0,  999.0,  999.0,  999.0,  999.0,  999.0,  999.0,  999.0,  999.0,  999.0,  999.0,  999.0,  999.0,  999.0,  999.0,  999.0,  999.0,  -54.8,  -54.9,  999.0,  -54.9,  -55.0,  -54.9,  -54.9,  -55.0,  999.0,  -54.9,  -55.1,  -55.1,  -54.8,  -55.0,  -54.8,  -54.9,  -55.0,  999.0,  -54.9,  -55.1,  -55.0,  -54.9,  -54.9,  -54.9,  -54.9,  999.0,  -55.0,  999.0,  999.0,  -55.2,  999.0,  999.0,  -55.0
2005/10/31 21:50,  999.0,    1.4,    1.1,    0.0,    0.2,    2.5,    3.3,  999.0,  999.0,  999.0,  999.0,  999.0,  999.0,  999.0,  999.0,  999.0,  999.0,  999.0,  999.0,  999.0,  999.0,  999.0,  999.0,  999.0,  999.0,  999.0,  999.0,  999.0,  999.0,   -9.1,   13.7,    0.1,  999.0,   -9.0,  -13.6,   13.8,  -27.7,   -0.2,  999.0,  999.0,  -13.8,  999.0,    0.1,  -18.1,   -9.1,  999.0,  -13.7,  999.0,  999.0,  -13.8,  999.0,  999.0,  999.0,  999.0,  -41.1,  -54.6,  999.0,  -36.9,  999.0,  999.0,  999.0,  -54.8,  999.0
2005/10/31 22:00,  999.0,   -1.5,  999.0,  999.0,  999.0,    2.7,  999.0,  999.0,    5.2,  999.0,  999.0,  999.0,  999.0,  999.0,  999.0,  999.0,   -9.4,  999.0,   -9.5,  999.0,  999.0,  999.0,  999.0,  999.0,  999.0,  999.0,   -4.5,  999.0,    0.0,    1.9,    1.6,    1.5,   -0.2,    0.1,   -0.1,    0.2,    1.4,   -0.0,    0.2,    0.0,    1.7,    0.1,    0.0,   -0.4,    0.1,    0.1,    1.3,   -0.3,    0.4,    2.6,    0.0,  999.0,   -0.1,  999.0,  999.0,  999.0,  999.0,    0.0,    1.9,  999.0,  999.0,  999.0,    2.3
2005/10/31 22:10,  999.0,  999.0,  999.0,  999.0,  999.0,  999.0,  999.0,  999.0,  999.0,  999.0,   -2.0,  999.0,    0.7,  999.0,  999.0,  999.0,   -4.5,   -4.7,  999.0,  999.0,  999.0,  999.0,  999.0,  999.0,  999.0,  999.0,   22.0,  999.0,  999.0,   22.3,   27.3,  999.0,   27.4,   27.4,  999.0,  999.0,  999.0,   27.5,  999.0,  999.0,  999.0,  999.0,  999.0,  999.0,  999.0,  999.0,   22.2,  999.0,  999.0,  999.0,  999.0,  999.0,  999.0,  999.0,    8.5,  999.0,  999.0,  999.0,  999.0,  999.0,  -27.6,   16.7,  -27.7
2005/10/31 22:20,  999.0,  999.0,  999.0,  999.0,   13.8,    3.2,    3.4,  999.0,    3.3,    2.9,  999.0,    0.2,   -2.5,   -5.1,  999.0,   -8.0,  999.0,  999.0,  999.0,  999.0,  999.0,  999.0,  999.0,  999.0,  999.0,   32.6,   49.6,  999.0,  999.0,   46.2,  999.0,   49.7,   49.7,   49.9,   51.4,   53.4,   54.8,   52.7,   54.9,   52.3,   52.2,   53.7,   49.4,   51.0,  999.0,  999.0,   54.8,   54.9,   54.7,   52.5,   54.7,   54.9,   55.0,   55.1,   54.7,   51.4,   52.1,  999.0,   54.8,   52.1,   48.1,   52.2,   49.9
2005/10/31 22:30,  999.0,  999.0,  999.0,  999.0,  999.0,   -1.7,    7.4,    2.0,    8.5,    7.0,  999.0,    4.5,    4.4,  999.0,  999.0,  999.0,  999.0,   17.6,   25.7,  999.0,  999.0,  999.0,  999.0,  999.0,  999.0,  999.0,  999.0,  999.0,   41.3,   36.8,   27.6,   27.4,   18.5,   27.5,   45.7,   27.4,   27.4,   34.2,   27.2,   27.4,   36.6,   45.9,   36.7,   36.7,   45.8,   27.6,   27.5,   45.9,   27.4,   27.4,   45.8,   27.7,   45.8,   27.4,   54.9,  999.0,   55.0,   37.1,  999.0,   41.7,   55.0,   27.2,   36.8
2005/10/31 22:40,  999.0,    3.2,    4.5,    5.9,  999.0,   -0.8,  999.0,  999.0,  999.0,  999.0,   -0.2,   -3.3,    1.4,  999.0,  999.0,  999.0,  999.0,  999.0,  999.0,  999.0,  999.0,  999.0,  999.0,  999.0,  999.0,  999.0,  999.0,  999.0,  999.0,  999.0,    5.3,  999.0,  -18.4,  -13.6,  -18.3,  -18.4,  -11.1,  -18.4,  -27.5,   -9.2,  -27.4,  -18.3,  -13.8,  -16.6,  -13.8,  -27.4,  -16.6,  -16.5,  -20.4,   -6.8,  -13.7,  -27.4,  -22.1,  -22.1,  -27.6,  -27.7,    0.0,  -22.2,  -55.0,  -27.5,  999.0,  -27.6,  999.0
2005/10/31 22:50,  999.0,  999.0,  999.0,  999.0,  999.0,  999.0,   12.4,    8.0,  999.0,    7.8,    6.1,  999.0,   -7.4,  999.0,  999.0,  999.0,  999.0,  999.0,  999.0,  999.0,  999.0,  999.0,  999.0,  999.0,  999.0,  999.0,  999.0,  999.0,  999.0,  999.0,  -10.1,  -10.1,  999.0,  -13.4,    3.6,  999.0,  -12.6,   -0.0,  -13.7,   13.8,    0.3,   -0.2,    0.1,   -1.5,   -0.1,   13.1,    9.2,  -27.2,  999.0,   13.7,   12.5,   -0.2,    9.3,   -9.2,  -14.1,  999.0,    0.1,  -27.4,  -51.9,  999.0,  999.0,    2.2,  -24.9
2005/10/31 23:00,  999.0,    2.5,  999.0,  999.0,  999.0,  999.0,  999.0,   -1.5,  999.0,    1.1,  999.0,  999.0,  999.0,  999.0,  999.0,  999.0,  999.0,  999.0,  999.0,  999.0,  999.0,  999.0,  999.0,  999.0,  999.0,  999.0,  999.0,  999.0,   55.0,   55.0,   54.6,   54.9,   36.6,   55.0,   55.0,  999.0,  999.0,  999.0,   55.0,   54.8,   55.0,   55.0,   54.8,  999.0,   36.7,   45.7,   36.7,   45.8,   45.8,  999.0,   45.9,   45.8,  999.0,   54.9,   45.9,   55.1,   55.0,   55.0,  999.0,   55.0,   45.8,  999.0,  999.0
2005/10/31 23:10,  999.0,  999.0,  999.0,   15.4,  999.0,  999.0,  999.0,  999.0,  999.0,  999.0,  999.0,    3.2,  999.0,  999.0,  999.0,    4.1,  999.0,  999.0,  999.0,  999.0,  999.0,  999.0,  999.0,  999.0,  999.0,  999.0,  999.0,  999.0,   46.0,   49.4,   30.0,  999.0,   51.3,   54.5,   44.7,  999.0,  999.0,  999.0,   54.0,  999.0,   54.5,  999.0,  999.0,  999.0,  999.0,   53.8,   36.9,   27.6,   49.2,   28.7,   27.1,  999.0,   30.0,   31.9,   35.0,   29.8,   36.6,  999.0,  999.0,   26.7,  999.0,  999.0,   19.6
2005/10/31 23:20,  999.0,  999.0,    3.2,    8.4,    4.0,  999.0,    3.8,    1.6,    2.8,   -5.7,   -8.2,  999.0,  999.0,  999.0,  999.0,  999.0,  999.0,  999.0,  999.0,  999.0,  999.0,  999.0,  999.0,  999.0,  999.0,  -18.4,  999.0,  999.0,   -0.1,   -0.1,  -13.7,   13.7,    9.1,    0.1,   13.7,   -0.2,  999.0,   13.7,   13.8,   -9.2,   -0.0,   -9.2,  -13.8,    9.1,    9.2,    0.0,    9.2,  -18.4,   13.7,  -13.7,   27.7,  -13.9,  -13.7,  999.0,    9.2,   -0.0,   13.7,   -0.1,   18.3,  999.0,  999.0,   13.7,  999.0
2005/10/31 23:30,  999.0,    3.6,    1.3,    5.2,  999.0,   -1.3,    7.8,  999.0,    0.6,  999.0,   -0.2,  999.0,  999.0,  999.0,  999.0,  999.0,  999.0,  999.0,  999.0,  999.0,  999.0,  999.0,  999.0,  999.0,  999.0,  999.0,  999.0,   54.6,   54.9,  999.0,   54.8,   51.4,   52.3,   54.7,   54.7,   54.2,   53.1,   53.5,   54.7,   47.4,   53.2,   54.9,   49.7,   53.0,   51.3,   55.0,   52.5,   49.6,   54.8,  999.0,   55.0,  999.0,   49.7,   55.1,   54.8,  999.0,   52.2,   55.0,   55.0,  999.0,  999.0,   54.9,  999.0
2005/10/31 23:40,  999.0,  999.0,  999.0,    2.9,    2.9,  999.0,    4.2,  999.0,  999.0,  999.0,  999.0,  999.0,  999.0,  999.0,  999.0,  999.0,  999.0,  999.0,  999.0,  999.0,  999.0,  999.0,  999.0,   27.5,  999.0,  999.0,  999.0,  999.0,   36.7,   54.8,  999.0,   41.2,   36.5,   36.5,   55.0,   54.8,   54.9,   54.9,   41.4,   55.1,   27.5,   18.5,   -0.2,    0.0,   18.5,  999.0,   45.9,   45.9,   27.7,   13.7,   36.7,   34.4,   27.5,   41.1,  999.0,   27.5,   41.3,  999.0,   41.5,   55.0,   41.3,   41.2,   41.3
2005/10/31 23:50,  999.0,  999.0,  999.0,    4.5,   -7.1,    2.9,    1.2,  999.0,    2.1,   -6.5,   -2.2,  999.0,  999.0,  999.0,  999.0,  999.0,  999.0,  999.0,  999.0,  999.0,  999.0,  999.0,  999.0,  999.0,  999.0,  999.0,  999.0,  999.0,  999.0,  999.0,  999.0,  999.0,  999.0,   13.3,  999.0,  999.0,  999.0,  999.0,  999.0,  999.0,  999.0,  999.0,    0.8,  999.0,  999.0,  999.0,   -8.4,  999.0,  999.0,  999.0,  999.0,  999.0,  999.0,  999.0,  999.0,  999.0,  999.0,  999.0,  999.0,   54.4,  999.0,  999.0,   27.5
